GFSSE_sfc_dewp_000.txt.gz
Dewpoint
63 64 69 69 71 72 72 73 73 73 72 72 72 72 72 72 71 70 70 70 69 68 68 70 70 69 67 67 68 71 71 71 71 71 70 69 68 68 67 70 70 66 71
63 63 68 68 69 71 72 72 73 73 72 72 72 72 70 71 70 69 68 67 68 66 65 67 68 69 69 70 70 70 70 71 70 70 70 69 68 67 67 69 68 66 71
63 62 60 68 68 68 70 71 72 72 71 72 71 71 71 69 69 68 67 65 63 65 63 68 68 69 69 70 70 70 70 70 70 70 70 66 66 68 67 68 68 70 70
63 62 63 69 69 67 68 68 70 71 71 71 71 70 70 68 68 68 66 64 64 65 64 66 68 68 69 68 69 70 70 70 70 70 68 64 63 68 67 67 67 69 70
63 63 65 69 69 68 68 68 69 70 70 70 70 70 69 69 67 67 66 65 64 65 68 67 66 69 67 68 68 69 68 69 69 68 64 59 61 67 67 66 67 68 68
62 64 67 69 68 67 66 67 69 69 69 70 70 70 70 67 65 64 64 63 66 67 66 65 64 66 68 67 67 67 68 68 68 65 62 60 58 68 68 68 68 66 67
63 64 66 68 69 68 67 67 68 68 68 68 69 69 69 68 68 66 66 66 67 64 62 62 62 63 67 67 67 67 68 68 66 64 61 59 63 69 68 68 69 68 68
62 64 65 68 68 67 67 67 66 67 67 68 68 68 68 68 68 67 67 67 67 66 64 63 65 66 66 66 67 66 67 67 65 63 61 56 66 70 68 69 69 68 68
58 60 63 66 66 66 65 64 65 66 66 66 67 66 67 67 66 65 65 64 63 63 64 65 65 65 65 66 66 66 65 66 64 62 61 59 68 69 68 68 68 68 67
59 58 61 62 65 65 63 63 64 65 65 65 66 66 67 66 64 63 63 63 62 63 62 60 59 63 64 64 64 64 64 64 63 61 60 63 67 67 67 68 68 68 67
54 59 63 63 64 64 62 62 64 65 65 65 64 65 64 64 63 62 62 62 61 61 61 59 57 59 61 62 63 63 63 61 59 59 60 63 66 64 65 67 67 67 67
51 52 56 62 64 64 58 58 65 63 63 64 63 63 63 62 62 61 62 62 61 60 59 59 58 57 56 57 59 62 60 57 55 59 61 63 65 63 63 66 67 67 67
48 50 52 59 63 64 63 63 63 63 63 63 62 62 62 60 61 60 61 61 61 59 59 58 58 58 57 57 57 59 60 60 57 54 55 63 64 63 63 65 67 67 66
45 46 50 58 60 61 60 58 60 58 59 59 59 59 61 60 59 59 59 57 58 58 58 58 57 56 56 57 57 57 58 60 59 58 59 60 63 64 62 63 65 66 66
46 46 48 54 58 59 58 58 57 56 55 54 55 55 57 57 58 58 58 57 57 57 57 58 57 57 57 57 58 58 57 57 60 59 58 59 59 60 61 62 63 64 65
40 46 48 50 55 55 57 57 56 54 52 52 53 54 55 57 57 57 55 55 54 55 56 57 58 59 58 58 58 58 58 57 57 58 58 58 58 59 59 60 61 64 65
40 43 45 47 51 52 53 53 52 49 47 49 52 52 53 54 52 51 51 50 52 53 54 54 53 54 56 58 58 59 59 59 59 59 59 58 58 58 58 58 60 61 63
44 40 42 35 45 48 49 47 46 46 48 49 52 52 50 50 50 49 49 49 48 49 48 46 46 48 51 53 55 54 54 56 58 58 58 59 57 57 58 59 59 59 60
40 39 41 40 40 45 45 44 45 46 46 47 50 49 48 46 46 45 46 48 46 43 43 42 42 42 41 42 42 47 47 49 52 56 57 57 58 57 57 58 57 57 58
43 41 41 40 42 44 44 44 44 45 44 44 45 45 46 44 43 43 45 44 43 42 42 43 43 42 42 41 35 36 41 43 49 56 57 57 57 58 58 57 56 54 56
43 40 39 38 41 40 41 41 41 42 43 44 43 43 45 43 43 43 42 41 42 42 41 41 41 41 41 42 40 37 38 37 39 44 53 58 59 58 57 57 57 56 51
41 41 39 39 40 40 39 40 41 42 41 41 42 44 43 45 43 41 43 40 41 41 41 43 42 40 41 41 40 38 34 32 39 41 42 51 55 58 58 57 57 56 56
43 43 40 39 39 41 40 38 40 41 41 39 39 41 43 44 45 44 43 42 41 41 41 42 41 40 39 40 39 39 34 32 34 34 38 37 43 51 56 57 59 57 56
43 45 43 42 39 39 43 37 40 36 33 34 37 37 37 44 44 42 42 43 42 42 41 42 40 43 41 38 40 39 39 38 34 33 36 36 36 37 48 54 56 57 57
42 46 45 43 42 41 42 42 39 40 39 39 40 40 39 40 40 39 40 41 42 43 42 42 42 42 42 41 39 39 39 39 38 36 34 34 36 37 40 51 52 52 52
44 45 47 45 41 42 42 43 43 40 41 41 41 39 39 39 40 41 38 39 40 39 39 39 38 38 39 39 39 38 37 36 35 34 33 33 33 34 36 41 48 50 52

GFSSE_sfc_dewp_003.txt.gz
Dewpoint
64 66 68 70 72 72 72 72 72 73 73 72 71 71 71 71 70 69 68 67 65 65 66 66 65 68 69 68 69 71 71 70 70 71 70 69 69 68 69 70 70 67 71
63 65 67 69 70 71 72 72 72 71 72 72 72 71 70 70 69 68 67 66 65 63 63 64 65 68 68 69 69 70 70 70 70 70 70 70 69 68 68 69 68 67 71
62 63 66 68 69 69 70 71 72 72 72 72 72 71 71 70 68 68 67 65 63 63 61 62 64 68 68 68 68 69 69 70 70 70 70 67 67 68 68 67 69 70 70
62 64 67 68 69 69 70 70 71 71 71 71 71 70 70 69 69 67 65 64 63 63 62 63 67 67 68 67 67 68 69 68 69 69 68 67 66 69 67 67 69 70 70
63 66 68 68 67 68 69 70 70 70 70 70 70 70 69 69 69 68 65 64 63 63 63 65 65 66 65 64 67 67 67 67 68 68 66 64 65 68 67 67 68 69 70
65 67 68 68 68 68 69 69 69 69 70 70 70 70 69 68 67 67 66 65 64 64 66 67 66 64 64 65 66 67 67 66 68 67 65 63 63 68 67 68 68 67 68
65 67 68 67 68 68 68 67 68 68 68 69 70 69 69 68 66 64 63 64 65 66 66 65 63 62 61 64 65 66 67 67 67 65 64 61 64 70 68 67 68 67 67
64 66 66 67 67 66 67 66 66 66 67 68 68 68 68 68 68 67 68 67 67 66 63 62 62 61 64 64 64 66 66 67 66 66 64 61 62 69 69 69 69 68 68
64 66 66 66 66 65 64 64 64 65 66 67 67 67 67 66 66 65 65 64 65 65 66 65 65 65 66 66 65 65 65 66 65 65 62 60 65 69 68 69 70 69 68
58 60 65 65 64 62 61 62 63 64 65 66 67 67 65 64 64 64 64 63 64 63 62 61 63 63 64 64 64 63 64 64 63 63 61 61 67 69 67 68 68 69 68
57 60 62 63 64 63 61 62 63 64 65 65 65 65 64 63 61 60 62 62 61 63 61 59 61 63 62 62 62 61 62 61 60 61 61 62 65 65 68 68 68 68 68
50 54 57 59 60 61 60 62 63 65 64 63 63 62 62 61 59 60 61 62 61 60 60 60 59 59 58 57 58 61 60 59 58 55 60 63 65 63 66 68 68 68 67
46 47 52 58 59 59 58 62 63 61 62 61 60 60 58 59 59 59 59 59 58 58 58 58 58 58 57 57 57 57 58 59 59 59 59 62 65 65 64 66 67 68 67
44 45 52 56 57 57 56 56 56 59 57 58 58 59 59 58 57 57 56 57 56 57 56 57 56 55 55 56 56 56 56 57 58 58 58 60 62 65 62 64 66 67 67
38 42 50 53 55 56 54 53 51 51 50 50 53 52 55 57 57 57 57 56 57 57 57 56 56 55 55 56 56 56 56 56 57 58 59 59 60 61 62 62 63 64 66
35 41 45 49 52 52 54 52 50 48 46 48 50 52 54 54 53 52 54 55 54 53 54 53 52 53 56 57 57 57 57 57 56 56 57 58 59 60 61 61 62 63 64
35 39 41 42 49 48 52 51 49 46 47 47 49 50 50 51 47 47 47 48 49 51 53 52 51 51 51 53 54 56 57 58 59 58 57 56 57 58 59 60 61 61 62
35 37 36 36 44 44 48 48 46 41 42 46 50 50 48 49 49 47 47 46 43 45 46 41 42 42 45 45 47 50 52 51 52 55 59 60 59 58 58 59 60 60 60
34 34 36 28 33 39 40 41 42 42 42 45 50 48 47 46 44 42 46 43 41 43 41 41 40 41 39 39 38 40 39 41 45 45 50 57 59 59 58 58 59 59 59
34 34 36 34 32 38 39 38 39 39 38 43 46 47 46 45 42 39 43 44 41 41 42 40 39 40 40 40 39 38 37 40 43 45 49 55 57 59 59 58 58 58 58
34 32 32 33 35 36 36 36 35 37 38 40 39 43 43 43 40 39 40 42 42 40 40 38 40 38 37 40 38 38 37 37 37 38 44 52 56 59 59 59 59 57 56
33 33 32 33 34 35 36 36 36 36 36 37 39 41 43 42 41 40 40 37 38 38 36 38 40 38 39 39 38 37 34 35 36 38 38 44 46 52 50 55 60 59 58
35 35 35 34 34 37 35 35 36 38 37 34 35 40 40 40 42 40 40 40 39 39 38 40 38 36 37 39 38 38 35 34 36 37 37 39 40 45 47 52 57 55 54
37 38 36 36 37 37 38 35 34 33 32 33 34 35 38 41 42 42 41 41 40 40 40 41 41 41 40 38 40 39 40 39 37 35 37 38 39 38 42 49 55 55 57
38 40 40 38 38 39 39 38 35 34 38 36 38 36 38 41 41 40 40 41 41 41 39 38 38 38 41 41 40 40 39 40 40 38 35 37 39 40 41 43 47 51 52
39 40 41 40 39 40 40 39 39 36 35 38 37 37 39 38 38 36 35 36 36 35 35 35 34 33 34 36 38 38 38 37 35 36 34 34 35 36 37 38 42 48 49

GFSSE_sfc_dewp_006.txt.gz
Dewpoint
64 66 69 71 71 72 72 71 72 72 72 72 71 71 72 70 69 68 67 67 67 68 67 66 65 66 67 67 67 68 68 69 69 70 70 70 68 69 69 70 70 69 71
63 65 68 70 71 71 72 71 71 72 72 72 71 72 71 70 68 68 68 68 68 67 63 65 66 67 67 67 68 68 67 67 69 70 70 70 69 68 69 69 68 69 71
61 64 66 68 70 71 71 71 71 72 72 72 72 72 70 69 68 68 68 67 63 64 64 64 65 67 68 66 65 67 67 67 67 68 69 67 66 68 68 67 67 71 71
62 65 66 68 69 70 70 70 70 70 70 72 71 71 70 69 69 68 67 63 63 61 64 67 67 66 67 63 63 64 67 68 68 68 67 67 66 68 68 67 69 70 70
65 66 66 67 68 70 70 70 70 70 70 71 70 70 70 69 69 68 65 64 63 63 64 66 67 67 65 64 63 64 67 66 67 67 66 66 64 66 68 67 70 69 69
64 65 66 66 67 69 70 69 69 69 69 70 70 70 69 68 67 67 66 64 64 64 64 65 65 64 65 64 63 67 66 65 66 65 66 65 64 67 68 68 68 69 69
64 65 66 66 67 68 68 68 68 68 69 69 69 69 68 67 66 64 63 65 64 65 66 66 67 66 65 65 65 66 66 64 66 65 65 63 60 68 68 68 68 68 68
64 66 66 67 66 66 66 66 66 67 68 68 68 68 68 68 68 67 67 66 65 67 64 64 63 64 63 64 65 65 63 65 65 66 65 64 63 67 69 68 67 67 68
64 65 65 65 65 65 65 64 64 65 66 67 67 67 66 66 66 66 65 65 65 65 65 64 64 63 63 65 65 64 64 65 65 65 65 63 64 66 69 69 68 68 68
65 65 64 64 63 61 60 63 64 64 65 66 66 65 64 64 64 64 64 64 64 64 64 63 64 65 65 65 64 63 63 63 63 62 62 61 65 67 68 69 68 69 68
61 64 64 64 63 61 59 61 63 64 65 65 66 65 63 62 61 61 62 63 63 62 61 60 60 61 60 60 61 61 62 61 60 60 60 62 64 65 67 68 68 68 68
56 58 59 62 62 62 59 62 62 63 63 63 63 63 62 60 59 60 61 62 60 60 60 60 60 60 58 57 57 58 59 59 59 57 56 61 64 64 65 67 67 67 68
49 53 57 58 59 57 59 62 63 62 62 62 61 60 59 58 59 59 58 58 56 58 57 57 56 56 56 56 56 56 56 57 58 59 59 61 63 64 64 66 67 67 67
45 49 56 57 57 55 56 61 60 60 61 59 59 59 58 57 56 56 56 56 55 56 55 55 55 55 53 54 55 54 54 55 56 56 57 59 61 62 63 64 65 65 66
43 47 53 55 56 55 53 51 51 51 53 52 53 54 58 57 56 56 56 55 55 55 55 54 56 57 56 56 56 55 55 55 56 56 57 59 59 61 61 62 64 64 65
41 46 52 52 54 55 52 50 48 48 47 49 51 52 55 56 55 55 55 55 54 53 52 51 50 50 50 52 54 56 57 57 56 56 56 56 58 59 60 60 61 62 63
39 43 47 49 51 49 52 51 48 46 46 48 49 50 52 51 48 49 49 51 51 52 51 51 49 48 48 50 47 50 52 53 53 54 57 57 57 58 59 60 61 61 61
37 40 41 44 47 47 50 50 49 46 44 46 49 49 49 50 48 47 47 46 44 46 49 41 41 40 40 41 41 42 46 49 45 45 48 53 58 58 59 59 60 61 61
37 36 32 40 41 41 42 44 42 43 40 43 49 49 48 48 47 45 47 45 41 43 42 40 39 39 38 38 37 39 38 37 37 40 42 43 49 58 59 59 59 59 61
34 36 34 30 33 38 39 38 39 39 39 41 47 48 48 46 45 41 45 44 41 41 41 40 38 40 39 38 38 37 38 37 39 38 40 43 48 53 55 58 59 59 58
33 32 34 33 33 35 36 36 35 35 38 39 41 47 47 45 43 40 41 43 43 40 41 39 38 38 37 38 37 37 37 37 36 36 41 43 48 53 55 56 58 58 59
32 31 32 32 33 35 35 35 35 35 36 37 38 40 46 45 43 40 40 41 41 41 39 39 39 38 38 39 37 36 34 34 36 37 38 39 41 44 47 46 49 56 58
32 33 32 32 33 35 36 35 36 37 37 37 36 38 41 43 43 41 40 41 39 39 38 37 38 37 36 39 38 37 35 33 36 37 38 39 39 41 43 45 46 50 53
34 35 34 35 34 35 37 35 34 32 32 33 34 35 39 42 41 42 41 41 39 40 40 40 40 40 39 37 39 40 39 39 36 31 36 38 40 40 42 43 45 45 50
35 37 38 37 37 38 39 39 37 35 35 35 36 35 36 39 41 42 42 42 41 40 37 34 34 32 36 35 35 36 36 37 37 34 29 29 33 39 41 41 42 43 42
38 38 40 39 39 40 40 40 39 37 36 36 37 37 39 38 38 39 38 37 36 36 35 34 33 31 32 32 32 32 35 32 30 31 29 28 28 29 32 32 31 37 41

GFSSE_sfc_dewp_009.txt.gz
Dewpoint
63 67 70 71 71 71 71 72 72 71 71 72 72 71 70 70 70 70 70 69 69 69 67 66 67 67 68 66 67 67 68 69 69 70 70 68 67 67 69 70 70 68 70
63 66 69 70 71 72 71 72 72 72 72 72 72 71 70 69 69 68 68 68 69 66 64 65 66 67 68 68 68 68 68 68 68 69 70 69 68 68 68 69 68 69 70
63 65 66 69 71 71 71 71 72 72 72 72 71 71 70 69 69 68 68 66 64 65 64 64 66 68 66 66 66 67 67 68 68 68 69 67 66 68 68 69 68 70 70
64 65 66 69 70 70 70 70 71 70 71 72 72 71 70 69 69 68 67 64 64 63 65 65 65 68 65 66 66 66 67 66 68 68 68 67 66 68 67 68 68 69 70
64 65 65 68 69 69 69 69 69 70 70 70 71 70 70 69 68 67 65 65 63 64 65 65 66 66 65 64 65 64 66 67 67 67 66 66 66 67 67 68 69 69 70
63 64 65 67 68 69 68 68 68 68 69 70 70 69 69 68 68 67 65 64 63 64 64 65 65 65 66 65 65 64 66 65 65 64 65 66 65 65 67 68 68 69 69
63 64 64 66 67 68 67 67 68 68 68 69 69 69 68 67 66 65 65 66 65 64 66 66 67 67 66 65 64 65 66 65 63 64 64 64 63 65 67 68 68 68 68
63 64 64 66 66 66 67 67 67 67 68 67 68 68 68 68 67 67 65 64 64 65 66 65 65 64 65 63 63 64 64 63 63 64 65 64 65 66 66 68 68 68 68
64 64 64 64 65 65 65 65 65 66 67 67 66 66 66 66 66 66 66 66 66 66 66 63 64 63 63 64 64 64 64 64 64 64 64 64 64 65 66 68 68 68 68
63 63 62 63 63 61 61 64 64 65 66 66 65 65 64 64 64 64 64 64 64 64 63 62 63 64 64 63 63 62 62 63 61 61 62 62 64 65 65 67 68 67 68
64 63 62 62 61 60 57 60 63 64 65 65 65 64 62 61 60 59 62 63 63 62 61 61 61 60 59 58 59 60 60 60 59 59 57 60 61 64 64 65 67 67 67
61 62 62 62 62 61 59 60 61 62 62 62 63 62 61 59 58 59 60 61 60 60 60 59 59 59 57 56 56 57 55 56 57 58 58 61 61 63 64 66 66 66 66
60 59 60 62 61 61 60 61 61 61 61 61 60 61 60 58 58 57 57 57 55 57 55 56 55 55 54 53 54 54 54 55 55 55 56 59 59 60 63 64 65 65 66
50 54 57 58 57 54 59 61 61 61 61 60 59 59 57 56 56 56 56 56 55 55 54 54 54 54 54 54 54 54 54 54 54 55 56 58 59 59 60 62 63 64 65
46 50 55 56 56 54 55 54 56 56 60 58 58 57 57 56 55 55 54 54 53 54 54 53 53 53 53 53 54 54 55 55 55 56 56 58 58 59 61 60 62 63 63
44 48 52 55 56 53 51 50 50 50 51 51 52 52 56 56 55 55 55 54 54 53 52 50 49 48 48 49 50 51 53 54 54 54 55 54 56 57 56 59 61 60 60
43 46 52 52 54 53 52 50 48 46 47 48 50 52 54 54 53 53 53 53 53 51 50 49 48 47 43 46 43 44 45 48 51 47 48 52 52 55 58 58 59 61 61
41 45 47 48 50 48 52 50 49 47 45 46 48 50 51 51 48 47 47 49 49 47 50 45 40 39 39 39 39 39 40 44 41 38 41 45 50 51 56 59 59 60 60
40 41 39 46 46 45 48 49 46 45 42 42 47 49 49 50 49 48 47 46 44 43 45 40 39 39 37 36 36 37 37 37 36 38 38 39 43 48 54 58 59 59 60
38 35 32 40 40 39 40 39 39 40 41 41 43 48 49 48 48 45 46 46 42 41 41 40 38 39 38 37 36 37 36 37 37 37 37 40 42 46 49 51 55 55 58
35 35 31 30 32 36 36 36 36 36 38 39 40 43 48 48 46 44 43 45 43 41 40 40 38 37 37 37 36 36 36 37 36 36 38 40 42 43 44 47 48 49 52
32 33 33 33 33 34 34 35 35 34 35 36 39 40 46 47 46 44 41 42 43 41 40 40 39 38 38 39 35 36 32 34 34 37 38 39 40 42 43 43 45 47 49
31 32 32 32 32 34 36 35 35 36 36 36 36 37 39 45 47 45 41 40 41 42 40 39 39 38 36 39 38 36 33 31 35 36 34 37 38 39 41 42 43 45 46
33 34 34 34 34 35 36 36 35 33 32 34 35 36 36 41 42 45 43 40 40 41 39 38 39 39 38 35 35 39 37 37 29 27 31 30 31 34 38 41 41 39 39
34 36 37 39 39 39 40 39 39 38 38 38 38 37 37 38 42 43 43 41 40 42 40 37 35 33 34 33 32 32 32 34 35 33 23 23 29 30 35 38 39 39 37
39 39 39 39 39 40 40 41 40 39 39 39 39 39 39 38 39 41 41 40 37 36 36 35 34 34 33 34 35 35 34 30 29 29 29 26 28 30 32 34 34 36 39

GFSSE_sfc_dewp_012.txt.gz
Dewpoint
62 66 70 71 71 71 71 71 71 71 72 72 72 71 70 71 70 70 70 70 69 69 66 67 67 68 66 65 67 69 69 69 69 69 69 68 68 67 69 70 70 68 70
63 65 69 71 71 71 71 71 71 71 72 72 71 70 70 70 70 69 69 67 68 66 66 67 66 66 68 67 68 68 67 68 69 70 70 69 68 68 67 70 69 68 69
63 65 68 70 71 71 71 72 72 72 72 71 71 70 70 69 68 68 67 65 65 64 64 63 66 68 67 67 68 68 68 68 68 68 70 67 66 68 68 69 68 70 69
63 65 67 69 69 70 70 70 71 71 71 72 71 71 70 69 68 68 66 65 64 64 65 65 65 67 66 66 67 66 67 67 67 68 68 67 66 67 67 69 68 69 69
63 64 67 68 68 69 69 69 69 70 70 71 71 70 70 69 68 67 65 65 63 64 64 64 66 66 67 65 65 64 66 66 66 65 65 66 66 66 67 67 68 69 69
62 62 66 67 68 68 68 68 68 68 69 69 69 69 69 69 68 67 66 64 63 64 64 66 66 66 65 66 65 65 66 65 63 61 63 65 66 66 66 67 67 68 69
61 62 64 66 67 68 67 67 68 68 68 69 69 69 68 68 66 65 65 66 65 65 66 66 66 66 65 65 64 64 65 64 64 63 64 64 64 65 66 68 68 68 68
61 62 62 66 66 66 67 66 67 67 67 67 67 68 68 67 67 67 65 64 64 65 66 65 64 64 63 63 65 63 63 64 63 63 64 64 65 66 66 67 67 67 67
62 62 62 62 64 65 64 65 65 66 66 66 66 66 66 66 66 65 65 65 65 65 65 64 64 65 64 64 64 62 62 63 62 62 63 63 64 65 66 66 67 67 67
62 62 61 61 62 61 60 64 64 65 65 66 65 64 64 64 64 63 62 64 63 62 62 62 62 61 60 60 60 60 60 61 59 59 60 61 62 63 65 66 67 67 67
62 61 61 61 61 59 57 60 63 64 65 65 64 64 61 60 58 58 62 63 62 61 61 61 60 60 59 58 58 58 57 57 58 58 58 61 61 62 64 65 66 67 67
61 62 61 61 60 59 58 59 60 61 61 62 63 61 60 58 57 59 59 61 59 59 59 59 59 57 55 53 54 55 54 54 55 56 56 59 59 60 61 63 65 66 66
61 61 62 61 61 60 60 59 59 60 60 60 60 60 59 59 57 57 56 56 54 57 54 55 54 54 54 53 54 54 54 55 54 55 56 59 59 60 60 60 62 64 65
59 61 61 61 60 59 59 60 59 60 59 59 59 59 57 56 55 55 55 55 54 54 53 53 53 53 53 53 53 53 53 54 54 55 56 57 56 56 59 61 61 61 63
56 57 57 57 57 54 57 58 59 59 59 59 58 57 57 55 54 54 54 53 53 53 53 53 51 51 50 50 51 52 52 53 54 54 53 53 52 51 52 54 59 61 61
52 51 55 55 56 53 53 53 55 55 56 56 56 56 56 56 55 54 54 53 53 53 52 50 48 47 46 47 47 45 46 48 51 49 46 47 50 51 53 54 55 57 60
46 48 52 54 54 53 51 50 48 49 49 49 51 51 52 55 54 54 53 53 53 52 50 49 47 46 43 43 41 42 43 44 48 44 42 44 46 49 52 56 57 58 59
43 46 51 51 52 52 52 51 49 47 46 46 48 50 51 53 53 51 51 51 52 51 50 48 42 40 39 39 39 39 39 40 40 38 41 42 44 46 50 54 53 56 54
41 45 48 47 49 48 48 50 50 48 46 44 45 48 49 50 51 48 47 48 49 47 47 47 40 39 37 37 37 37 38 37 37 37 38 40 42 44 48 50 51 51 51
41 43 42 43 46 44 42 41 41 40 41 43 42 44 48 49 49 49 47 47 46 43 43 42 39 40 38 37 35 36 37 37 38 37 37 39 41 43 44 45 48 47 49
38 35 33 36 38 37 37 37 37 37 37 39 40 41 44 47 48 48 46 46 46 43 41 41 40 38 38 39 37 36 37 37 37 37 38 40 41 42 43 44 45 46 47
35 34 33 32 32 33 35 34 35 35 35 36 38 39 41 44 47 47 46 44 44 44 41 40 39 38 38 38 35 35 32 33 34 37 38 37 39 41 40 42 42 44 45
31 32 32 32 33 34 35 35 35 35 36 35 35 36 37 40 43 46 46 44 43 43 42 40 39 38 37 38 39 35 33 31 33 34 35 33 38 35 39 38 40 42 42
32 33 34 35 36 37 38 37 37 35 35 37 37 37 37 39 40 43 46 45 43 42 42 40 40 39 37 37 37 39 35 35 25 24 30 35 30 32 34 38 39 38 39
36 39 39 39 39 40 39 39 40 39 40 41 40 40 40 40 39 40 42 43 42 41 40 40 36 35 35 34 32 33 33 34 35 30 25 26 29 31 33 36 38 39 38
38 38 39 39 39 40 40 40 39 38 38 39 39 40 40 40 39 39 41 40 38 36 36 37 39 37 37 37 36 35 34 31 31 32 32 30 27 29 33 34 35 36 38

GFSSE_sfc_dewp_015.txt.gz
Dewpoint
62 67 70 71 71 72 71 71 71 71 71 71 71 71 71 71 70 70 69 69 69 68 67 67 67 67 66 65 66 68 70 70 68 69 69 68 67 69 70 71 70 66 71
64 67 69 70 71 71 71 71 70 71 71 70 71 70 70 70 69 69 68 68 67 66 65 65 66 67 67 66 66 67 68 68 69 69 70 68 68 67 68 70 69 66 70
64 67 68 70 70 71 71 72 72 71 71 71 70 70 70 69 69 68 67 65 65 65 65 64 66 67 66 66 67 68 68 67 67 68 69 61 62 67 67 69 68 69 68
63 66 67 69 69 70 70 70 71 72 72 71 70 70 69 68 68 68 66 65 64 64 65 66 66 67 67 65 65 64 66 67 67 67 64 64 63 67 67 68 68 68 68
62 65 67 68 68 68 68 69 70 70 71 71 71 70 70 69 68 68 65 65 64 64 64 65 66 67 66 66 65 65 65 65 64 63 64 64 64 65 67 67 67 68 68
61 64 66 67 67 67 68 68 68 68 69 69 70 70 69 69 68 67 67 65 63 64 64 66 67 67 66 66 65 64 65 65 65 61 61 63 64 65 66 67 68 67 68
59 63 64 66 67 67 67 67 67 68 68 68 68 68 68 67 67 66 64 65 65 65 66 66 65 64 64 64 63 63 64 64 61 61 61 65 64 66 66 66 68 68 67
58 61 63 66 66 66 66 66 66 67 67 67 68 68 68 67 67 67 67 66 66 66 66 65 65 65 64 65 65 64 64 64 63 63 63 64 65 66 66 66 67 67 66
60 60 61 62 63 65 65 65 65 66 66 66 66 65 66 66 65 65 65 65 65 64 64 63 63 64 63 62 61 61 61 61 61 61 60 61 62 63 64 65 67 67 66
62 61 62 63 62 63 62 64 64 65 65 65 65 64 63 63 63 62 62 63 63 63 62 62 61 61 60 60 60 59 59 59 58 59 60 60 61 63 64 65 65 66 67
62 63 63 63 62 61 60 61 63 65 65 65 64 63 62 62 61 60 61 62 61 61 61 60 59 59 57 56 57 57 56 55 55 55 55 59 60 60 62 63 64 65 67
61 62 62 64 63 62 57 61 62 62 63 64 65 64 63 63 62 60 60 60 59 59 59 58 58 57 55 55 56 56 56 57 56 56 55 59 60 60 61 61 61 64 65
61 62 63 64 64 63 61 61 61 62 63 63 64 64 64 63 63 62 61 60 60 58 56 57 57 58 58 58 57 57 56 56 56 56 56 57 56 57 59 60 61 61 63
62 63 64 64 64 65 63 62 61 61 62 62 63 63 63 62 62 61 59 59 60 59 58 58 59 58 57 56 55 54 54 54 53 52 48 53 51 50 51 54 57 60 61
61 62 64 64 64 62 60 61 62 62 63 63 63 63 62 61 61 59 59 58 58 58 57 58 57 54 52 49 50 49 48 49 51 44 43 49 51 51 53 53 54 57 59
59 61 62 60 60 58 58 61 61 62 62 62 62 62 62 61 60 58 58 57 57 57 57 58 56 50 48 47 47 45 44 45 48 46 40 43 48 51 54 54 55 57 58
56 57 58 58 59 59 56 56 55 56 56 58 59 60 60 59 59 58 58 57 57 58 58 56 52 50 47 45 44 44 44 45 46 44 41 41 42 49 52 51 54 51 52
51 53 54 54 56 57 56 55 54 52 52 51 52 53 55 56 56 57 56 56 56 57 56 55 52 48 44 41 41 40 40 41 42 41 40 42 41 39 46 49 49 49 50
49 50 52 54 54 54 54 53 54 54 52 51 51 49 52 53 55 55 54 54 55 54 54 54 52 49 43 40 39 40 41 39 41 36 40 43 42 42 41 46 47 48 47
48 49 51 51 51 52 49 49 47 46 46 47 46 46 48 49 52 53 52 53 52 50 51 51 51 48 44 41 35 35 41 40 40 40 38 37 40 41 42 41 40 39 46
45 46 48 46 47 46 44 42 42 41 41 42 41 43 45 45 48 50 49 50 51 50 49 50 48 48 44 43 40 39 40 42 42 40 40 37 39 40 41 41 36 32 33
42 43 40 37 38 37 38 40 41 40 40 40 42 44 45 45 45 45 48 47 49 48 50 49 48 45 43 43 39 38 35 36 38 40 39 39 40 40 36 35 33 36 35
39 39 36 37 39 40 42 40 41 42 42 40 40 40 41 44 45 45 45 46 47 47 47 49 48 46 43 42 43 38 35 33 35 37 40 37 38 34 35 31 33 32 33
40 44 42 42 42 42 44 42 42 39 37 38 40 40 41 44 44 44 44 45 47 47 47 46 46 46 44 41 41 40 41 37 34 32 33 34 35 31 32 33 32 31 36
43 43 44 42 43 43 43 41 40 40 40 40 40 40 41 42 43 43 43 44 45 45 46 45 45 44 42 41 39 39 36 35 37 31 29 29 29 32 31 32 32 32 34
44 44 44 43 42 43 44 41 41 41 41 40 40 39 38 39 40 41 41 42 43 41 42 42 42 42 41 40 40 40 38 35 33 35 33 33 34 33 30 30 31 32 32

GFSSE_sfc_dewp_018.txt.gz
Dewpoint
59 65 70 71 71 71 71 71 70 70 71 72 72 71 71 71 71 71 70 70 69 68 67 66 66 66 66 66 65 67 67 67 68 67 68 67 67 69 70 69 69 63 70
61 65 70 70 71 71 72 71 70 70 71 71 71 70 70 70 70 69 69 67 66 66 65 64 66 66 67 66 67 68 67 68 68 68 68 67 66 67 68 68 68 66 69
58 63 65 70 70 71 72 72 71 71 70 70 70 70 69 70 69 68 66 65 65 66 65 66 66 66 67 67 65 66 67 67 67 67 67 59 57 67 67 68 68 68 68
58 61 64 69 70 70 71 71 72 72 71 71 70 69 69 68 68 67 66 65 65 64 65 66 67 67 67 66 65 64 65 65 65 66 61 59 57 66 67 68 67 68 68
58 61 65 68 68 69 69 69 69 70 70 70 70 69 68 68 68 67 67 66 64 64 64 66 67 67 66 65 64 64 64 65 64 62 59 60 61 63 66 66 67 68 68
54 56 65 67 67 68 67 67 68 69 69 69 69 69 69 68 68 67 66 65 65 65 66 66 66 65 64 65 63 63 63 64 64 58 59 61 61 65 65 66 67 67 67
52 56 58 66 66 67 66 66 67 67 68 68 68 68 68 67 67 66 64 64 65 65 66 64 65 64 63 63 63 63 63 63 60 58 58 60 62 65 65 65 67 67 68
52 57 57 64 66 66 66 66 67 67 66 67 67 68 67 67 66 66 66 66 66 65 65 65 65 65 65 64 63 63 63 63 61 59 60 60 63 64 65 65 67 67 67
53 55 57 59 62 65 65 65 66 66 66 66 66 66 66 65 65 65 65 65 64 64 64 63 63 63 62 61 60 60 60 61 61 59 58 59 63 63 63 64 64 66 67
56 56 58 60 59 61 60 63 64 65 65 65 64 64 64 64 63 62 62 63 63 62 62 62 61 61 60 59 59 58 57 58 58 58 59 58 61 62 63 64 64 64 66
57 60 61 60 61 62 59 60 62 64 65 65 64 63 62 61 61 59 61 61 61 61 60 59 59 57 56 57 57 56 57 54 56 55 54 59 60 60 61 61 62 64 64
58 60 61 64 63 63 56 61 61 60 61 62 62 63 60 63 62 59 60 60 59 58 58 57 57 57 56 50 52 56 52 55 54 54 53 59 59 60 60 60 61 61 63
57 58 61 64 65 64 60 59 57 57 59 61 64 63 63 62 62 61 59 57 58 57 54 53 54 51 53 53 50 52 51 52 49 49 52 53 51 52 54 57 59 60 61
54 59 62 64 65 65 60 57 58 57 58 59 60 64 63 60 60 60 57 56 57 54 56 53 53 56 55 53 51 50 50 48 45 47 47 49 50 50 51 52 54 56 59
55 58 62 64 65 63 62 59 60 60 58 60 59 59 62 59 59 57 56 55 53 52 52 53 52 52 51 48 45 44 42 43 45 40 41 47 50 52 52 53 54 56 57
56 59 62 64 65 60 57 60 59 60 58 58 57 57 61 61 58 55 53 50 50 50 50 51 51 51 47 46 44 44 42 41 41 43 37 42 48 50 51 52 55 54 54
54 57 61 63 61 58 56 56 55 54 56 53 53 56 58 59 56 56 52 50 49 50 54 54 53 52 49 45 43 42 42 43 41 43 39 38 43 50 50 50 49 49 50
52 54 58 58 57 57 54 54 52 51 52 51 51 52 54 55 55 55 51 50 51 52 51 50 50 48 48 45 43 39 39 39 41 42 39 39 38 35 47 48 47 48 48
48 51 55 58 54 54 53 52 53 53 52 49 51 48 50 52 53 53 50 50 52 50 50 49 49 50 48 44 41 40 40 39 39 36 39 42 42 39 36 47 46 46 45
47 51 55 54 52 53 52 52 47 46 45 46 44 44 46 46 48 50 49 50 51 50 49 48 50 48 47 46 38 36 39 40 40 39 39 37 40 41 41 41 40 39 43
49 50 49 49 49 47 46 43 42 42 41 41 42 45 47 46 47 49 47 48 48 48 50 51 49 50 48 47 45 42 40 42 44 41 40 38 38 38 41 40 37 33 36
45 45 42 40 40 39 40 42 43 43 43 44 45 45 44 46 45 43 46 45 46 45 48 49 50 49 48 48 45 42 38 37 39 41 41 39 42 38 38 38 37 36 36
43 43 40 41 43 45 45 43 43 43 43 40 40 39 40 42 42 43 44 45 46 45 44 46 47 48 46 47 48 44 39 37 37 38 42 40 41 40 38 36 35 35 35
45 45 44 43 43 43 45 42 43 40 39 40 40 39 40 41 41 41 42 44 45 44 45 45 44 47 47 45 45 45 46 43 39 37 39 40 40 38 40 37 34 35 34
46 46 46 43 43 44 44 43 41 41 41 41 41 43 42 39 39 38 41 43 45 44 45 46 46 46 45 43 42 43 42 43 43 39 36 37 37 36 34 34 36 36 35
46 46 45 42 41 43 44 43 44 44 43 41 40 38 35 36 35 38 40 43 44 44 45 44 43 42 42 41 40 40 40 38 37 38 38 38 38 38 35 36 36 35 36

GFSSE_sfc_dewp_021.txt.gz
Dewpoint
60 65 71 71 71 71 71 70 70 70 72 72 71 71 71 71 71 71 71 70 69 67 66 66 66 67 68 66 67 67 68 68 68 67 67 66 66 68 69 69 69 64 70
60 64 71 71 71 71 71 71 70 71 71 70 71 70 71 70 70 69 68 66 67 66 66 66 66 67 67 68 67 67 67 67 67 67 67 66 66 68 68 68 70 66 68
61 63 66 71 71 72 71 71 71 71 70 70 70 70 70 69 68 67 66 65 66 66 66 67 67 68 67 66 65 66 66 66 66 66 68 57 65 68 68 67 68 68 68
58 61 66 70 70 70 71 71 72 71 70 70 69 69 69 69 68 67 66 66 66 65 65 66 67 67 66 65 64 64 64 65 65 66 59 60 57 66 68 67 67 67 67
57 61 66 68 69 69 70 70 70 70 71 70 70 69 68 68 67 67 67 66 64 65 65 66 67 67 66 65 64 63 64 64 65 62 57 61 61 64 66 65 67 68 68
53 58 65 67 67 68 67 67 68 68 69 69 70 70 69 69 68 67 66 66 66 65 66 66 65 64 64 64 63 62 62 63 64 58 59 59 59 66 64 65 66 66 68
48 53 57 66 67 66 66 66 67 67 68 68 68 68 67 67 67 66 65 65 66 66 66 65 65 64 64 64 64 64 64 64 60 57 60 63 63 66 65 65 67 67 67
49 52 55 64 66 66 66 66 66 66 66 67 67 67 67 67 66 66 66 66 65 65 65 65 65 65 64 63 62 62 62 62 60 58 60 61 63 64 64 65 66 66 66
49 51 53 56 62 65 65 66 66 66 65 65 65 65 65 65 65 65 65 64 64 64 63 63 62 62 61 60 59 59 59 61 59 54 54 60 63 63 64 64 64 65 66
50 52 54 55 55 58 61 64 65 66 65 65 64 63 64 64 63 62 64 63 62 62 62 61 61 60 60 59 59 58 59 60 58 53 58 59 61 61 62 63 64 64 64
51 56 56 54 56 56 53 59 63 65 65 65 64 63 62 59 59 60 62 61 60 60 60 59 59 58 59 59 59 57 59 52 52 51 55 60 60 60 61 61 62 63 64
53 53 56 60 58 56 49 56 56 54 57 58 59 60 57 60 60 57 60 61 60 60 59 59 59 58 58 49 52 58 52 50 50 47 52 58 57 58 60 60 61 61 62
51 52 54 62 61 59 55 52 52 52 55 56 60 60 59 59 59 57 57 57 58 59 54 55 54 52 53 52 49 50 48 49 46 44 51 52 50 52 54 56 57 60 61
48 50 55 62 63 60 55 52 52 52 54 54 57 59 58 56 57 57 53 53 53 50 52 52 51 53 55 53 50 50 48 46 41 43 47 50 47 50 51 53 54 56 59
47 50 53 61 65 60 59 54 55 55 54 57 56 56 56 55 56 54 53 51 50 49 49 50 49 49 50 50 48 46 44 43 44 42 40 50 48 52 52 52 54 55 57
47 50 53 58 64 60 54 56 55 56 55 54 53 53 55 56 57 54 52 50 49 47 47 49 50 50 49 48 47 46 45 42 40 43 39 44 51 51 51 51 54 54 53
47 49 53 58 62 60 54 53 51 51 50 50 50 53 53 54 54 54 51 51 49 51 55 52 50 50 49 48 46 45 43 45 43 42 42 39 44 51 52 52 50 49 49
46 46 51 56 60 58 53 51 49 48 49 48 49 50 51 52 53 53 50 50 51 53 50 49 49 48 48 47 48 45 43 41 42 43 42 41 38 38 50 51 49 48 48
45 47 50 57 58 56 53 50 51 51 49 47 49 47 48 50 50 51 50 50 54 51 52 51 50 51 48 48 45 46 45 42 43 37 41 43 44 41 38 52 50 50 48
49 49 51 55 56 53 52 51 46 45 44 45 44 43 47 48 49 50 49 50 50 48 49 50 53 51 50 50 44 43 48 44 43 44 41 39 41 44 42 43 42 40 48
50 51 52 53 52 48 46 43 42 42 42 42 42 46 47 46 47 48 45 46 48 46 49 51 51 51 50 51 49 49 49 49 48 44 45 43 41 41 45 42 42 39 39
46 46 44 43 43 42 41 42 44 45 43 44 45 46 45 44 44 43 46 44 46 44 48 50 50 47 48 50 48 47 45 44 45 46 44 45 47 43 41 43 44 42 38
46 44 43 43 44 45 45 42 43 43 43 41 41 42 42 44 44 44 45 43 45 46 44 48 48 48 45 47 50 46 44 41 43 44 47 45 46 46 44 42 44 41 39
46 46 44 44 43 44 46 43 44 42 41 42 44 43 44 46 43 40 39 41 44 45 46 46 42 46 46 43 44 42 46 48 44 43 44 45 45 44 46 44 42 39 39
47 47 46 43 43 44 45 45 44 44 43 43 43 43 42 40 39 37 38 41 43 43 44 46 46 46 45 44 43 42 43 43 43 41 40 42 44 44 44 44 43 38 38
46 46 45 43 41 43 45 46 45 44 43 40 40 39 37 37 37 38 37 41 43 44 44 45 43 43 42 41 40 39 38 38 37 36 37 38 37 43 43 44 42 41 41

GFSSE_sfc_dewp_024.txt.gz
Dewpoint
64 68 71 72 72 72 71 71 71 72 72 72 72 72 72 72 71 70 70 69 69 68 66 66 69 68 68 68 68 68 69 69 69 69 68 67 67 68 69 70 69 65 70
65 68 71 72 72 72 72 71 71 71 71 71 71 72 71 71 69 68 68 69 68 67 67 68 68 68 68 67 67 67 67 68 68 68 69 68 68 66 67 70 70 68 70
65 65 68 71 72 72 72 72 72 71 71 71 71 71 70 69 68 67 67 67 67 66 66 67 68 68 67 66 66 65 66 67 67 67 68 63 65 66 67 69 69 70 69
63 64 66 70 71 71 71 72 72 71 71 71 70 71 70 68 68 67 66 66 66 66 66 67 67 67 66 65 65 65 65 65 66 66 61 58 62 66 64 66 68 68 68
63 65 66 68 69 70 70 70 71 71 71 71 70 70 69 68 68 68 67 66 66 66 66 66 66 66 66 66 65 64 63 65 66 64 58 59 61 66 66 66 67 68 69
60 63 65 67 68 68 68 69 69 69 70 70 70 70 69 69 67 66 66 66 66 66 66 65 64 63 64 64 64 64 64 65 64 58 57 63 63 66 66 66 68 67 67
55 59 62 66 67 68 67 67 68 68 69 69 68 68 68 67 67 66 66 66 66 66 65 65 65 65 65 65 64 64 64 64 63 59 59 64 65 60 64 65 67 67 67
51 55 59 66 67 67 67 67 67 67 67 68 68 67 66 66 66 66 66 65 65 64 64 65 65 64 63 62 61 62 62 62 59 58 59 63 65 64 64 65 66 66 66
50 53 58 61 64 66 66 66 66 66 66 66 66 66 66 66 66 65 65 64 64 63 63 63 62 62 61 61 60 61 61 61 59 58 57 61 65 64 64 65 65 66 66
52 52 55 59 60 62 63 65 65 65 65 65 64 64 64 64 64 65 64 63 62 62 61 61 60 61 61 61 61 61 60 60 57 57 59 61 64 62 61 62 63 64 66
51 58 58 56 59 62 61 62 65 65 65 65 64 63 62 62 62 62 62 63 61 61 61 60 60 60 60 61 61 61 60 55 53 52 58 62 61 60 60 61 62 62 64
54 56 59 61 60 57 50 61 63 61 63 63 62 62 62 61 61 59 61 62 62 62 62 61 61 61 60 54 57 60 57 53 51 50 58 60 57 56 57 60 61 62 62
53 54 58 64 62 61 59 56 59 59 61 63 64 61 62 60 63 61 62 61 61 62 60 59 58 58 56 55 54 54 52 50 50 49 55 57 54 52 53 56 58 60 61
51 54 61 64 64 61 60 58 58 58 60 60 60 61 61 60 61 58 58 56 55 55 55 54 54 56 54 55 54 52 50 50 47 46 51 54 52 48 50 54 56 57 59
49 52 57 64 66 63 60 61 60 59 61 60 59 60 60 59 59 59 57 56 55 54 52 53 52 52 53 52 52 50 48 48 47 46 48 52 52 50 51 53 55 57 58
49 53 58 61 66 63 59 59 59 60 60 60 58 58 58 59 59 58 56 56 54 54 53 53 52 53 53 52 51 51 48 46 45 45 45 48 52 54 54 53 53 55 57
51 53 59 64 64 63 58 57 56 56 54 55 56 56 55 56 56 56 56 55 54 55 55 54 53 52 52 51 50 50 50 48 47 46 46 46 48 53 55 54 55 53 53
50 50 53 54 63 63 60 57 54 54 55 53 53 54 54 54 55 55 55 55 56 56 55 54 53 52 51 51 50 50 48 47 46 46 45 45 45 42 51 55 55 53 52
52 52 53 57 61 61 59 55 55 54 53 53 55 53 55 52 54 54 53 54 55 54 54 53 51 52 51 50 49 48 49 48 46 43 43 45 46 44 45 52 54 54 54
55 54 54 58 59 59 57 54 53 52 51 52 51 52 53 51 53 53 52 53 53 51 50 51 52 51 51 51 48 47 48 48 49 47 45 44 45 44 44 46 50 50 53
55 54 54 54 54 52 51 49 49 50 50 50 50 52 51 51 49 50 49 49 49 49 49 50 49 48 48 49 49 47 48 49 49 47 47 45 44 44 44 45 44 41 44
49 49 48 47 49 48 47 48 50 50 50 50 50 48 49 49 48 47 48 47 47 47 47 47 47 47 47 48 47 46 43 44 45 45 46 44 44 43 43 43 43 42 42
49 49 46 47 48 49 50 47 48 48 49 47 48 47 48 50 49 49 49 48 47 46 46 46 46 45 45 46 47 46 42 40 43 44 44 48 50 50 47 43 43 43 43
50 51 48 47 46 47 49 48 49 47 45 47 47 46 45 48 47 44 44 45 46 47 45 46 45 47 45 43 44 43 42 43 42 40 42 43 47 47 48 49 49 47 44
51 51 50 47 46 48 48 50 49 48 47 46 46 46 45 45 44 43 42 43 45 46 46 46 44 43 42 41 41 40 39 39 40 38 37 38 39 40 42 45 47 48 48
51 50 50 47 45 47 47 48 47 46 46 45 45 44 43 42 41 41 41 43 44 45 45 44 43 42 41 41 40 39 37 36 36 35 34 34 35 38 39 42 42 45 47

GFSSE_sfc_dewp_027.txt.gz
Dewpoint
68 70 71 72 72 71 71 71 71 71 72 72 72 72 72 71 70 70 70 70 70 69 68 68 69 69 68 67 68 68 68 68 68 68 67 66 66 67 68 70 69 67 71
69 70 71 72 72 72 72 71 71 72 72 72 72 72 71 70 69 69 69 69 68 67 68 68 68 68 67 66 66 66 67 67 67 67 67 66 67 67 68 70 68 68 70
68 70 71 71 72 72 72 72 72 72 72 72 71 71 70 69 68 68 67 68 67 66 67 68 68 67 66 66 65 65 66 67 66 66 66 61 65 66 66 68 69 68 69
66 68 70 70 71 72 72 72 72 71 71 71 71 70 70 68 68 68 67 68 68 67 67 67 67 67 66 66 65 65 64 65 66 66 61 59 63 65 64 65 68 68 68
65 66 68 69 69 70 70 71 71 71 71 71 70 70 70 69 68 67 67 68 67 67 66 66 65 64 64 65 65 65 65 65 65 63 59 60 65 62 63 65 65 67 67
63 64 66 67 68 69 69 69 69 70 70 70 70 70 69 68 67 66 66 66 66 66 66 65 64 64 65 65 65 65 65 65 65 61 59 63 64 65 66 65 66 65 67
60 63 65 66 67 68 68 67 68 69 69 69 69 69 68 67 67 67 67 67 66 65 65 65 65 65 64 64 63 63 63 63 61 59 59 63 61 61 63 64 66 65 66
57 61 63 66 67 67 67 67 67 67 67 68 68 68 67 67 67 66 65 65 64 64 64 64 63 63 63 62 62 62 61 61 59 58 62 63 65 63 64 63 66 65 66
56 59 62 63 65 66 65 65 65 65 66 66 66 66 66 66 66 66 65 64 63 63 62 62 61 62 62 62 62 61 61 61 60 57 57 61 66 65 64 65 65 65 66
54 57 59 61 62 63 63 64 64 64 64 64 64 64 64 64 65 65 64 64 63 62 61 60 61 61 61 61 62 62 61 61 54 54 59 61 64 63 62 63 62 63 64
52 55 58 58 60 61 61 63 64 64 64 63 63 63 62 62 62 63 63 63 63 62 62 61 61 61 60 60 60 60 61 57 54 53 59 62 62 60 61 61 61 62 62
53 55 56 56 60 60 57 62 62 63 63 63 63 62 61 61 61 61 61 62 62 62 62 62 61 60 60 56 54 59 58 56 52 49 57 61 60 58 58 59 61 62 62
53 55 57 55 55 56 55 60 61 61 62 62 61 58 58 59 59 60 60 60 59 61 59 60 59 58 57 56 54 54 53 50 48 47 55 59 58 55 54 55 57 59 61
52 56 59 58 57 56 56 55 56 57 58 61 59 57 57 58 55 55 55 54 55 57 58 57 56 54 55 53 54 53 51 48 47 46 52 56 56 52 51 52 55 57 58
51 57 59 59 58 57 55 56 55 56 57 56 57 57 56 57 55 55 54 54 52 52 51 51 50 50 51 51 50 51 49 47 47 46 47 54 54 54 50 50 53 55 57
49 58 61 61 61 60 57 54 55 55 56 56 56 55 55 56 55 55 53 54 52 52 52 52 51 51 51 51 51 50 49 47 45 45 45 47 53 54 54 52 52 54 55
50 60 62 62 62 62 56 53 53 57 50 53 53 54 54 54 52 53 53 53 53 54 53 52 52 52 51 51 50 51 50 49 47 45 44 46 47 53 55 56 54 54 55
55 58 62 64 62 64 57 52 51 51 51 50 52 53 52 53 52 52 51 51 53 53 52 52 52 51 51 50 50 49 50 49 47 46 44 44 45 45 52 55 56 57 55
51 51 56 61 63 60 57 55 52 50 48 48 50 51 50 51 52 51 50 51 51 52 51 51 50 50 50 49 49 48 48 48 49 47 45 44 45 45 43 51 55 57 56
52 53 52 52 55 56 55 52 51 49 49 49 49 49 48 50 48 46 47 48 48 47 47 48 47 47 48 48 47 47 49 49 49 49 47 44 44 45 44 44 49 50 55
46 46 46 47 47 46 45 45 45 45 46 46 48 46 45 47 47 47 47 45 45 45 46 45 45 45 45 47 46 45 46 47 47 49 50 48 47 45 44 45 45 47 48
45 45 45 45 45 45 45 46 46 46 46 46 48 47 48 47 46 45 46 46 46 45 45 44 44 43 45 45 44 44 41 42 43 45 46 48 49 50 50 48 46 45 43
45 44 44 45 45 46 45 45 46 46 46 45 45 44 46 46 45 43 42 43 43 45 44 43 45 45 44 44 43 42 40 40 40 42 43 46 46 43 44 48 49 50 48
46 46 44 44 44 45 45 45 45 45 43 45 44 44 43 43 42 41 42 42 43 44 43 45 43 42 41 40 41 40 40 41 37 34 41 41 40 40 41 43 46 49 50
46 45 44 44 44 45 46 46 46 43 44 44 44 43 42 42 41 40 39 40 41 43 45 42 41 42 41 40 40 38 37 37 38 35 33 35 36 36 39 41 42 46 47
46 45 44 44 44 45 45 44 43 43 44 44 42 41 41 40 40 39 38 41 44 44 43 44 43 41 41 40 38 37 37 34 34 34 32 32 33 35 35 39 40 42 45

GFSSE_sfc_dewp_030.txt.gz
Dewpoint
69 70 71 71 71 71 71 71 71 71 72 72 72 72 71 71 70 70 70 70 70 69 68 69 68 68 67 67 67 67 67 67 67 67 67 66 66 66 67 69 70 68 69
69 70 70 71 71 71 71 71 71 72 72 72 71 71 70 70 70 69 68 68 68 67 68 68 68 68 67 66 66 66 66 66 66 66 65 64 67 65 65 68 69 68 69
70 70 70 71 72 72 72 72 72 72 71 71 70 70 69 68 68 67 67 67 68 67 68 68 67 67 67 66 65 65 65 65 66 66 64 59 65 64 66 67 68 69 68
69 70 70 71 71 72 72 71 71 71 71 71 70 69 68 68 68 67 67 68 68 67 67 67 66 65 65 65 65 65 65 65 65 65 59 59 63 63 63 65 66 67 67
67 68 69 69 70 71 71 71 71 71 70 70 70 69 69 68 68 67 67 68 67 66 66 65 64 64 64 64 64 64 64 64 65 62 59 62 64 65 65 63 64 67 67
64 65 67 68 69 70 70 70 70 70 70 70 70 69 68 67 66 66 67 67 66 66 65 64 65 65 65 64 64 63 63 63 63 59 59 62 64 60 64 65 66 67 67
61 63 65 67 68 68 68 68 69 69 69 69 69 68 67 67 67 67 67 66 65 64 64 64 64 63 63 63 62 62 62 62 59 57 59 62 63 66 65 65 66 66 66
61 63 64 67 67 67 67 67 67 68 68 68 68 68 67 67 66 65 65 64 64 63 63 62 62 62 62 62 62 62 62 62 59 56 58 62 63 64 65 65 65 65 65
60 62 63 64 65 65 65 65 65 65 66 66 66 66 66 66 66 66 65 64 63 62 61 60 61 61 61 61 61 61 61 61 58 54 54 61 65 65 63 64 64 65 65
58 60 61 62 63 62 63 64 64 64 64 64 64 64 64 64 65 65 64 64 63 62 61 61 61 60 61 60 60 60 60 60 55 53 58 60 65 64 63 63 63 63 63
55 57 60 60 61 61 62 63 64 64 64 63 63 63 62 62 63 63 62 63 63 62 61 61 61 60 59 59 59 59 60 57 54 51 57 60 63 63 62 62 61 62 62
54 56 57 59 59 60 59 62 61 62 62 62 62 61 61 61 61 62 62 62 62 62 62 62 62 61 60 57 55 57 56 55 53 48 54 60 62 61 60 60 61 61 62
54 56 57 59 60 58 57 60 60 61 62 62 62 61 61 61 61 61 59 60 59 60 59 59 59 58 57 56 55 54 53 52 49 47 50 60 60 58 57 56 57 58 59
54 55 55 56 59 57 56 59 60 60 61 61 61 59 57 58 55 56 58 57 56 55 57 57 56 55 54 54 53 53 53 51 48 47 49 57 58 57 55 54 54 56 58
54 55 55 56 56 55 55 56 56 57 59 60 58 56 57 55 54 54 54 53 52 52 51 50 50 50 50 50 50 50 50 50 48 47 47 53 57 56 54 53 53 53 54
54 56 59 58 59 60 56 54 54 57 56 57 56 56 56 56 54 54 52 52 52 52 53 52 51 51 52 52 52 52 51 50 48 46 46 46 55 56 56 54 53 53 53
55 60 59 62 62 61 60 57 53 55 55 56 54 55 55 55 53 52 52 51 51 53 52 51 51 51 51 51 50 50 50 50 50 48 46 45 47 55 55 56 57 55 54
58 60 62 61 60 59 61 59 56 51 50 52 53 53 52 53 52 51 50 50 51 51 50 49 50 49 48 49 48 48 49 49 49 48 47 45 45 45 51 55 56 57 57
56 61 61 61 59 57 60 57 54 52 50 50 50 51 50 52 51 49 48 48 48 46 47 47 46 47 46 45 44 45 47 48 48 48 48 47 46 45 45 49 55 56 56
52 55 56 58 58 59 56 53 51 49 47 49 49 47 49 48 48 47 47 46 46 45 46 45 44 44 44 44 44 43 47 47 49 49 49 49 47 45 45 44 46 50 54
46 47 50 52 49 48 48 48 47 45 46 47 46 48 47 46 46 45 45 44 45 45 44 44 44 43 43 44 44 43 44 44 45 44 46 47 48 49 49 49 46 46 47
50 47 47 45 45 44 45 45 46 45 47 46 45 46 45 43 43 40 42 42 42 44 43 43 43 44 44 43 41 42 40 39 42 38 43 46 43 43 43 43 47 49 46
45 45 44 44 44 45 45 45 45 45 45 44 44 43 43 42 41 41 41 41 41 43 42 43 42 42 41 41 41 39 36 35 35 37 34 41 41 40 41 41 43 48 50
44 44 43 44 44 45 45 45 44 43 41 43 43 42 41 41 40 40 40 40 41 42 43 43 42 40 41 39 41 39 40 39 35 31 36 34 37 36 37 39 42 45 48
44 43 44 44 44 45 46 45 45 43 44 44 43 40 39 40 40 39 41 42 43 44 43 41 41 41 40 39 38 39 36 35 35 34 30 33 34 35 36 37 40 42 46
45 44 44 44 44 45 45 45 45 43 43 41 40 38 39 39 38 40 42 42 43 42 42 41 41 40 39 38 38 36 35 34 32 32 32 31 31 33 34 36 37 40 43

GFSSE_sfc_dewp_033.txt.gz
Dewpoint
69 70 71 71 71 71 71 71 71 71 72 72 72 71 71 70 70 70 70 70 70 68 68 68 68 68 67 67 66 66 66 66 66 66 65 65 66 64 67 70 69 68 68
69 70 70 71 71 71 71 71 71 72 72 71 70 70 70 69 68 68 68 68 68 68 68 68 68 67 66 66 66 65 65 65 66 65 65 63 66 64 66 68 68 68 68
69 69 70 70 71 71 71 72 72 72 71 70 69 69 69 68 67 67 67 68 68 68 67 67 66 66 66 66 65 65 65 65 65 65 62 60 64 64 64 67 67 68 68
69 70 70 71 71 71 71 71 71 71 70 70 69 68 68 68 67 67 67 67 66 66 66 65 64 64 64 64 64 64 64 64 64 64 59 59 64 64 62 64 66 66 66
69 69 70 70 70 71 71 71 71 71 71 70 69 69 68 68 67 66 67 67 66 65 64 63 64 64 64 64 64 63 63 63 63 60 59 60 64 64 64 62 63 66 66
66 67 68 69 69 70 71 71 70 70 70 70 69 69 68 66 66 66 66 66 65 64 63 64 64 63 63 62 62 62 62 62 60 56 58 60 64 62 62 65 66 66 66
63 65 66 67 69 69 69 70 70 70 69 69 69 68 66 66 66 66 66 65 64 63 63 62 62 62 62 62 62 62 62 62 58 55 57 61 63 65 65 65 67 66 65
62 63 64 67 68 68 68 68 68 68 68 68 68 68 67 66 66 65 64 64 63 62 61 60 60 60 61 61 61 61 61 61 57 54 53 59 63 64 64 65 66 65 65
62 62 63 64 65 66 66 66 66 66 66 66 67 66 66 66 65 65 64 63 62 61 60 60 60 60 60 60 60 60 60 61 54 53 53 57 62 64 63 62 64 65 65
60 61 61 61 62 62 62 64 64 65 65 65 65 64 64 64 64 64 64 64 63 61 61 60 60 60 60 60 60 60 60 59 54 52 53 59 63 64 63 62 62 63 64
57 59 60 61 61 60 60 62 64 64 64 64 64 63 62 62 62 63 62 62 63 62 61 61 61 61 60 60 59 59 59 55 53 51 49 57 61 63 63 62 62 62 63
55 57 59 59 59 60 60 61 61 62 62 61 61 61 61 60 60 62 62 63 62 62 62 62 62 62 61 57 55 57 54 53 53 49 48 57 59 61 61 60 60 60 61
53 55 58 58 58 59 58 61 60 61 61 61 60 60 60 60 60 60 60 59 58 59 58 59 57 57 56 55 55 54 54 53 51 49 48 55 59 59 57 57 57 57 58
53 55 57 58 58 57 58 59 59 60 61 61 61 61 60 59 57 57 58 56 54 52 52 53 53 52 50 51 51 51 51 52 51 49 48 54 59 57 55 55 55 55 58
53 55 56 58 59 57 56 58 59 59 60 61 61 59 57 55 54 54 53 52 52 52 52 51 51 51 51 51 51 51 51 51 50 49 48 53 55 57 57 56 55 55 55
53 55 56 57 58 57 55 55 56 57 59 59 59 57 56 55 54 53 51 51 51 52 52 51 50 50 49 49 48 49 49 50 50 49 48 48 53 55 56 57 56 55 55
54 56 57 58 59 59 57 55 54 56 55 57 56 55 55 55 53 51 51 50 51 50 48 48 47 47 46 46 45 47 48 48 48 49 49 48 48 51 55 56 56 57 57
57 58 60 62 60 59 60 58 54 51 50 53 53 53 53 53 52 50 49 48 48 46 47 46 46 44 44 44 44 44 45 46 47 47 48 48 47 46 48 53 56 56 58
61 60 61 61 59 60 57 54 51 49 49 49 50 49 49 49 48 47 47 46 46 45 46 45 44 44 43 43 43 43 43 45 46 47 47 48 48 48 47 48 51 53 56
55 56 57 58 59 58 53 51 49 46 46 46 47 46 45 44 44 44 43 43 44 44 44 44 43 43 42 44 43 44 44 45 45 44 44 46 45 44 43 46 47 48 50
52 53 54 53 50 48 50 52 49 46 45 46 44 44 42 42 42 42 41 41 42 42 43 42 43 42 43 42 42 41 43 43 41 37 40 44 42 41 39 39 42 46 49
51 48 46 43 44 44 44 45 45 45 45 44 43 42 42 42 41 39 39 39 40 41 41 41 43 43 43 41 39 39 35 34 36 34 37 41 39 40 37 37 37 42 48
45 44 43 43 43 44 45 45 45 45 45 43 42 41 41 41 40 39 39 40 41 42 42 42 41 40 40 40 39 36 32 31 34 35 32 37 37 36 37 38 36 41 43
44 44 44 44 44 44 45 44 42 42 41 43 42 41 39 40 39 40 41 42 43 43 42 42 41 39 39 37 39 39 38 38 32 31 33 33 34 34 35 37 37 40 42
43 43 43 44 45 46 45 45 44 43 44 43 41 38 38 38 39 41 42 42 41 42 41 40 39 39 39 37 37 37 35 35 35 33 30 31 32 33 35 35 36 38 42
44 44 43 43 45 45 45 44 44 43 42 40 38 38 38 37 38 40 41 41 41 41 40 39 39 38 37 37 37 36 35 34 32 33 31 31 32 33 33 34 33 35 40

GFSSE_sfc_dewp_036.txt.gz
Dewpoint
68 69 70 71 72 71 71 70 71 72 72 72 71 71 70 70 70 70 70 70 70 68 68 68 68 67 66 66 66 66 66 65 65 65 65 64 66 64 67 68 69 66 69
69 69 70 71 71 71 71 71 72 72 71 70 70 70 70 69 68 68 68 68 68 67 66 67 66 66 66 66 66 66 65 65 65 65 64 64 66 64 65 68 68 67 68
69 69 70 70 71 71 72 72 72 71 70 69 69 69 68 68 67 68 68 68 67 66 66 65 65 64 64 64 64 64 64 64 64 64 63 60 64 65 64 67 67 68 67
68 69 69 70 71 72 72 72 71 70 70 69 69 68 68 67 68 68 67 67 66 65 64 63 63 64 64 64 63 63 62 63 62 61 59 60 63 65 63 65 66 66 65
69 70 70 70 70 71 71 71 71 71 70 70 69 68 68 68 67 66 66 66 65 63 62 62 63 63 62 62 62 61 61 61 60 57 58 59 63 64 64 64 63 65 65
68 69 69 69 70 70 71 71 70 70 70 70 69 68 68 66 65 66 66 65 63 62 62 61 61 61 62 62 61 61 61 61 58 54 55 61 63 66 65 66 67 66 65
66 67 67 68 69 70 70 70 70 70 69 69 69 68 66 65 66 66 65 64 63 62 61 60 60 60 61 61 61 61 61 62 56 53 53 58 61 65 65 65 67 66 65
64 64 66 68 69 69 69 69 69 69 69 68 68 67 66 66 66 64 64 63 62 61 60 59 60 60 61 61 61 61 61 61 54 52 53 56 61 65 64 64 66 66 66
61 62 63 64 66 67 67 67 67 67 67 67 67 66 66 66 65 65 64 63 61 61 61 61 61 61 61 61 61 61 60 61 53 52 51 57 63 64 63 62 64 65 65
60 60 60 61 62 62 63 65 65 65 65 65 65 64 64 64 64 63 63 62 62 61 62 62 62 62 62 61 61 60 60 57 53 52 49 52 60 60 62 63 63 63 63
58 59 59 60 60 60 61 63 64 64 64 64 64 63 62 61 61 61 62 62 63 62 62 63 63 62 62 60 59 60 58 54 53 52 49 53 57 57 59 62 63 62 62
56 58 59 59 59 59 59 61 61 62 62 61 61 61 60 59 59 61 62 62 63 62 61 61 60 60 58 56 55 56 54 54 53 52 50 55 56 56 57 59 62 61 61
54 56 58 59 58 58 58 60 60 61 60 60 60 60 60 60 59 60 59 58 57 57 55 56 55 55 52 52 52 52 52 52 52 52 51 55 56 57 57 56 60 60 60
52 54 57 58 57 58 58 59 59 60 60 60 60 60 59 59 58 57 57 56 53 52 51 51 51 51 51 51 51 50 50 50 51 51 51 55 55 56 57 57 58 59 60
52 54 56 57 57 57 57 58 58 59 60 60 60 60 59 58 55 54 53 52 52 52 52 51 50 49 48 48 47 47 47 49 49 50 50 53 55 55 56 57 57 57 58
52 54 56 57 58 57 55 56 57 58 59 59 59 57 56 55 54 53 52 51 51 50 49 49 48 46 45 46 44 45 46 46 47 48 49 49 52 53 54 55 57 57 57
53 55 56 59 59 59 57 56 56 56 56 57 56 55 54 54 52 51 49 48 48 47 47 46 45 45 44 43 43 44 45 45 45 47 48 49 49 50 52 53 54 55 56
55 58 60 60 60 59 56 56 55 51 51 52 52 51 50 49 48 46 45 45 45 46 46 45 44 44 43 43 43 43 43 44 46 47 46 48 48 46 48 48 50 53 54
59 59 59 59 60 58 55 54 54 51 47 50 48 45 45 45 45 43 43 43 43 44 44 44 43 43 42 43 43 43 43 43 46 41 44 46 45 43 40 41 44 46 50
57 59 59 60 59 56 55 53 49 46 45 45 43 43 43 43 44 43 41 41 42 41 41 42 41 42 42 43 41 43 42 44 40 38 41 42 41 41 39 38 38 40 46
54 56 58 58 58 54 53 49 47 46 43 43 42 42 42 42 40 39 39 39 40 40 41 41 42 42 42 41 41 39 41 42 37 35 41 42 39 38 37 37 36 37 43
52 52 50 46 45 45 45 45 44 43 43 42 42 41 41 40 39 38 39 40 41 41 42 42 41 41 42 40 37 37 32 33 35 34 34 38 37 37 35 36 37 36 41
43 42 42 43 43 44 45 45 45 45 44 42 41 40 40 39 39 39 40 41 42 42 42 41 40 39 38 39 39 36 32 30 34 34 34 35 36 35 36 36 36 37 40
43 43 43 43 43 44 45 43 42 41 41 42 41 40 38 38 39 41 41 41 41 41 40 40 40 39 38 36 37 38 37 37 32 30 33 33 35 34 36 37 37 37 41
43 43 43 44 45 45 45 44 43 43 43 42 39 37 37 37 39 41 41 41 40 41 40 39 39 38 38 37 36 36 35 34 34 34 31 30 32 34 35 36 37 36 39
44 43 43 44 44 45 44 44 43 43 41 38 37 37 37 37 37 39 40 40 40 40 39 39 38 37 37 36 36 36 35 35 33 34 32 32 34 35 34 35 35 36 37

GFSSE_sfc_dewp_039.txt.gz
Dewpoint
66 68 71 71 71 71 71 71 71 71 71 71 71 71 71 70 70 70 70 70 69 67 68 67 67 66 66 66 66 66 66 65 65 65 65 65 66 65 67 68 68 62 68
67 68 70 70 71 71 71 71 71 71 71 70 70 70 70 70 69 68 68 69 68 66 66 66 66 65 65 65 64 64 64 64 64 64 64 64 66 66 65 67 68 63 67
68 68 68 70 71 71 72 72 71 71 70 69 69 69 68 68 68 68 68 68 66 66 64 63 64 64 64 63 62 62 62 62 62 62 62 61 63 66 64 68 67 67 66
67 68 68 70 71 72 72 71 71 70 69 69 69 68 68 68 68 68 67 67 65 63 62 62 62 61 61 61 61 60 60 61 60 61 60 61 62 66 66 65 65 65 65
67 68 69 70 71 71 71 71 71 70 70 70 69 68 68 67 66 66 66 66 64 62 61 61 61 61 61 61 61 61 61 61 59 58 58 62 63 64 64 66 65 66 66
67 68 69 69 70 71 71 71 71 70 70 70 69 68 67 66 66 66 65 65 62 61 60 60 59 60 60 62 62 61 61 61 58 53 55 58 62 66 65 66 66 67 66
67 68 69 68 70 70 71 70 70 70 69 69 69 68 66 65 66 65 64 63 62 60 60 60 59 60 61 62 61 61 61 61 52 50 51 56 61 65 64 64 66 66 66
67 68 69 69 69 69 70 69 69 69 69 68 68 67 67 66 65 64 63 62 62 61 61 60 60 61 61 61 61 61 61 61 52 49 49 50 62 63 63 63 65 65 65
67 67 67 67 68 68 68 68 67 68 68 67 67 66 66 65 65 64 64 62 61 62 62 61 62 62 62 61 61 61 61 59 53 52 48 46 59 59 60 63 64 64 63
64 64 65 65 66 67 67 66 66 66 66 66 65 65 64 64 63 63 62 63 63 62 62 62 63 63 62 61 61 61 59 58 53 52 50 49 58 57 57 60 62 63 62
59 61 62 62 63 63 63 64 64 65 64 64 64 63 62 61 61 61 62 63 63 63 63 62 62 61 60 58 59 59 57 53 53 52 51 56 57 58 57 59 63 64 62
56 58 60 61 61 61 59 63 63 62 61 62 62 62 61 62 62 62 62 61 61 60 59 59 59 58 56 52 52 55 51 52 51 52 50 56 58 59 59 59 61 62 63
53 57 59 60 61 60 60 61 60 61 61 61 62 62 62 62 63 62 62 61 59 55 54 54 53 52 54 52 50 50 48 48 48 48 50 55 56 57 58 59 59 61 61
53 55 58 59 60 60 59 59 60 60 61 61 61 62 63 62 63 62 60 56 56 55 55 54 53 53 51 49 48 46 46 43 41 41 46 54 54 55 56 57 58 58 60
52 55 57 59 59 59 59 60 60 61 61 62 62 63 62 61 59 57 56 54 54 52 51 50 49 48 47 46 45 44 43 44 44 42 44 53 53 55 56 57 58 58 58
51 55 58 59 60 59 58 58 58 60 59 62 63 61 60 58 58 55 53 51 49 49 49 48 47 46 44 45 43 44 44 43 42 46 44 47 52 52 53 54 55 57 57
51 56 59 61 60 59 57 57 57 56 57 60 60 59 58 56 55 52 50 48 48 48 49 47 46 45 43 41 41 41 41 43 44 46 45 45 46 47 46 47 49 50 52
55 58 60 60 59 59 58 58 56 55 56 56 56 56 54 52 50 48 46 45 46 46 44 43 43 41 41 41 41 40 41 42 46 42 42 43 41 39 41 42 44 45 47
58 59 60 61 60 59 57 55 54 52 52 51 49 47 48 48 47 45 44 44 45 43 43 42 41 43 40 41 40 39 41 40 44 36 40 41 41 39 36 38 40 40 43
59 59 60 59 59 56 54 53 53 49 46 46 45 44 45 44 45 44 43 44 42 41 42 43 44 42 44 44 37 37 37 40 41 37 37 36 37 38 37 36 35 34 39
60 60 59 59 59 55 52 51 48 48 44 44 43 44 44 43 43 44 41 42 42 40 43 44 42 42 39 42 39 33 35 43 40 37 36 36 37 36 37 35 34 33 33
59 59 59 55 54 51 48 47 47 45 44 43 43 43 43 43 42 41 43 41 42 38 40 41 42 37 38 42 36 33 27 28 37 35 35 35 39 35 35 35 36 36 35
53 54 55 54 51 50 48 47 46 46 44 43 42 41 41 41 41 42 42 42 42 41 38 40 41 41 36 39 41 35 28 24 32 32 33 35 35 35 35 35 36 36 36
46 46 46 47 46 47 48 47 47 44 43 45 44 41 40 41 41 42 42 43 43 42 40 40 40 42 41 35 36 36 39 37 30 28 31 32 32 32 36 37 36 38 38
46 47 47 46 47 48 48 48 47 46 45 43 42 42 42 41 40 41 42 43 43 42 42 43 42 42 41 38 36 35 35 34 35 32 28 26 30 33 33 32 35 36 37
47 47 47 46 46 47 47 47 47 47 44 42 42 41 41 40 39 41 41 43 43 43 43 42 43 42 41 39 37 36 34 32 31 30 30 28 29 31 31 30 29 31 36

GFSSE_sfc_dewp_042.txt.gz
Dewpoint
63 66 71 71 71 71 71 71 71 71 71 71 71 71 71 70 70 70 70 70 69 67 66 67 66 66 66 66 66 65 65 65 65 65 65 66 66 66 66 67 68 60 67
65 66 70 71 71 71 71 72 72 71 71 70 70 70 69 69 69 69 69 68 67 66 66 65 64 64 64 64 63 62 62 62 63 64 64 65 67 66 65 66 68 63 67
65 66 67 70 71 71 71 72 72 71 70 69 69 69 69 69 69 69 67 67 65 64 63 63 62 61 60 60 60 60 61 60 61 63 63 55 60 66 65 66 67 66 66
65 65 66 70 71 71 71 71 71 70 70 69 69 68 68 68 68 67 67 67 64 62 61 60 60 59 60 60 61 61 61 61 60 62 57 57 57 66 66 65 66 65 65
64 65 67 70 70 71 71 71 71 70 70 70 69 68 68 67 66 66 65 66 64 61 60 59 59 59 60 61 61 61 61 60 61 57 53 60 58 64 65 64 63 65 66
64 65 69 69 70 71 71 71 71 70 70 69 69 68 66 66 66 65 64 65 61 60 60 59 58 59 60 61 61 61 61 60 61 47 51 57 59 65 64 64 66 66 66
64 66 68 68 69 70 71 71 70 70 69 69 69 67 66 66 64 64 64 63 62 60 60 60 60 61 61 61 61 61 61 60 48 46 47 51 54 62 63 64 64 64 64
66 66 67 69 70 70 70 70 69 69 69 69 68 67 66 66 64 63 62 62 61 61 61 61 61 62 62 61 61 61 61 60 48 44 43 44 60 59 59 62 65 64 63
67 66 66 66 68 69 68 68 68 68 68 67 67 67 66 65 65 64 64 62 62 62 62 61 62 62 62 61 60 60 59 59 50 48 44 46 59 59 58 58 61 63 63
66 63 61 62 62 64 65 67 67 66 66 66 66 65 64 63 63 62 63 63 62 62 62 62 62 61 60 59 59 59 58 60 48 47 46 52 59 60 60 59 59 61 62
62 61 60 59 60 60 60 64 65 65 65 64 64 64 62 58 59 58 62 63 62 62 61 61 60 59 59 58 58 57 59 47 47 46 45 58 58 59 60 60 61 62 62
54 54 57 58 59 59 55 60 60 58 58 60 59 61 59 62 60 58 61 61 60 58 58 58 58 58 55 49 48 53 46 48 46 46 45 56 56 57 58 58 60 60 62
50 51 54 59 60 58 58 57 55 57 59 61 63 62 63 62 63 61 60 58 58 56 54 54 54 52 53 50 48 48 46 45 43 41 46 54 55 56 57 57 58 59 60
50 52 55 57 60 60 56 57 58 58 60 61 62 64 64 62 64 63 59 58 58 55 56 54 53 53 51 48 47 47 47 45 43 42 45 53 54 55 56 57 57 58 59
50 53 55 57 58 59 60 59 60 62 61 63 63 64 63 64 63 60 59 57 55 53 52 51 50 48 48 47 47 47 45 45 45 42 42 53 52 53 54 54 55 56 57
51 54 57 58 59 59 59 61 60 60 61 62 64 64 62 62 60 58 57 55 52 50 49 49 48 46 45 45 45 45 45 44 44 45 42 43 50 47 48 49 51 52 52
52 57 59 60 60 60 59 58 57 57 60 60 62 62 61 60 59 57 54 51 48 48 48 46 46 44 43 42 43 42 41 42 41 43 41 41 42 47 42 44 45 46 47
52 58 60 61 61 60 59 57 57 57 58 59 59 59 57 55 53 50 48 47 48 47 45 44 43 42 41 40 40 37 37 38 38 41 37 41 39 36 44 41 41 42 42
54 58 60 61 61 60 59 59 58 56 55 52 51 50 50 49 49 47 46 47 47 44 44 41 39 38 36 35 32 30 33 33 32 32 37 40 39 37 35 41 39 39 38
58 60 61 61 59 58 59 58 55 49 47 46 46 46 46 46 47 46 46 46 42 39 36 38 39 37 37 38 33 30 35 33 34 37 36 32 35 37 35 37 36 33 38
60 61 60 60 60 60 58 53 48 46 46 46 45 46 46 45 46 47 42 40 38 37 39 39 37 36 34 37 36 29 29 31 40 37 34 34 34 35 36 35 34 33 33
59 60 60 59 60 58 54 50 48 47 46 45 45 46 45 46 44 40 40 37 38 36 39 40 39 36 33 34 36 33 25 25 26 35 33 33 36 34 32 34 37 37 36
59 59 57 56 55 52 50 48 48 48 46 44 44 43 44 43 41 40 40 39 39 38 36 39 38 38 34 33 36 34 30 25 27 29 32 30 34 32 33 33 35 35 35
55 54 50 50 50 50 50 47 47 44 43 46 47 44 43 42 39 38 39 40 41 40 40 39 35 39 37 34 32 30 34 33 31 30 30 29 28 28 32 32 32 32 33
48 49 49 48 47 48 49 48 48 47 47 46 45 45 44 42 40 37 39 41 41 40 41 42 41 40 37 35 34 32 33 30 31 31 30 25 24 25 27 28 30 29 29
49 49 49 47 47 48 49 49 49 47 44 43 42 40 38 37 37 38 38 40 41 41 40 40 41 40 39 38 36 35 33 30 27 28 30 28 26 25 25 25 25 27 27

GFSSE_sfc_dewp_045.txt.gz
Dewpoint
61 65 71 71 71 72 72 72 72 72 72 71 71 71 71 70 70 70 70 69 68 67 66 66 65 65 64 63 63 63 62 63 64 64 64 66 66 66 66 67 67 61 68
63 65 71 71 71 71 72 72 71 71 71 70 70 70 70 70 69 69 68 67 66 65 64 64 63 61 60 60 60 60 60 61 63 64 63 66 67 66 66 66 68 63 67
64 65 66 71 71 71 72 72 71 71 70 69 69 69 69 69 69 68 67 66 64 63 62 60 59 59 60 61 61 62 61 61 61 63 66 60 62 66 65 67 68 66 66
64 65 65 70 71 72 72 71 71 70 69 69 69 68 69 68 67 66 65 66 64 61 60 59 59 60 61 61 61 62 61 61 63 65 56 53 59 66 65 65 66 65 65
63 64 67 70 71 71 71 71 70 70 70 69 69 68 67 66 66 65 64 65 62 60 59 58 59 60 61 61 61 61 61 62 63 58 51 55 58 63 64 64 63 64 65
64 67 68 69 70 71 71 70 70 70 70 70 69 67 66 66 65 64 64 64 61 60 60 59 60 61 62 62 62 62 62 62 62 45 48 56 56 62 64 64 65 64 65
66 66 67 69 70 70 70 70 70 70 69 69 68 67 66 64 64 64 63 62 61 61 60 60 61 61 62 62 61 61 62 62 49 40 41 50 55 59 59 63 64 64 63
66 66 67 69 69 69 70 70 69 69 69 68 68 67 65 64 64 62 62 61 61 61 61 61 62 62 61 61 60 60 61 61 49 45 42 49 60 60 59 59 64 65 64
66 66 66 67 69 69 68 68 68 68 68 67 67 66 66 65 65 64 63 62 62 61 61 62 62 61 60 59 59 59 60 61 53 46 45 50 60 60 60 60 60 62 62
66 64 60 62 62 65 66 67 67 67 66 66 66 64 64 63 63 63 64 63 62 62 62 62 61 59 58 59 59 59 60 60 47 45 48 53 59 59 60 60 61 61 63
59 58 58 57 59 60 62 65 66 66 65 65 63 64 61 56 57 59 63 63 61 60 60 60 59 58 58 59 57 56 57 46 47 45 46 57 56 57 58 59 60 60 61
55 54 56 58 58 57 53 59 58 57 57 58 59 60 58 59 60 58 61 62 59 58 59 59 57 58 58 49 48 55 46 48 45 44 46 57 53 54 56 57 58 59 60
50 51 54 57 58 55 56 55 54 56 59 60 61 60 62 59 60 59 59 58 58 57 54 54 53 51 53 51 49 50 48 48 46 44 49 55 53 53 54 55 57 58 59
48 50 54 57 58 58 55 53 56 55 58 58 62 62 62 62 63 60 57 56 56 54 56 54 52 53 52 51 50 50 50 48 46 45 48 54 53 53 53 54 55 56 56
48 50 52 55 58 59 59 59 59 60 60 63 64 65 64 65 62 61 59 55 55 53 51 52 51 50 50 49 48 48 47 48 47 44 45 54 52 51 50 52 53 53 53
50 53 54 56 58 59 61 62 61 61 61 64 64 64 63 63 62 59 58 55 53 52 50 50 49 47 48 47 46 46 45 45 44 45 42 43 51 49 46 45 48 49 49
52 55 57 59 59 60 58 57 57 57 58 60 61 62 61 61 60 59 55 53 50 49 50 48 50 48 44 42 42 41 40 40 38 40 41 40 41 49 44 43 42 44 44
54 57 58 58 61 60 59 57 57 58 58 59 59 59 58 56 55 53 50 49 49 48 48 46 42 39 38 36 38 35 33 33 35 36 34 37 38 37 42 41 41 40 41
55 58 59 61 61 60 59 59 59 58 57 57 53 53 52 51 51 49 48 49 48 44 42 40 39 39 37 35 32 34 35 32 36 30 34 37 39 36 36 41 42 45 39
56 59 60 60 61 60 61 60 58 57 52 50 48 47 48 48 49 48 47 46 43 40 41 40 41 37 36 34 28 33 36 32 31 34 37 35 35 36 35 36 35 35 44
57 59 60 60 60 60 59 56 55 51 48 47 46 47 47 47 47 48 43 42 41 39 39 41 39 39 36 36 32 32 33 36 37 33 34 35 34 34 35 34 33 33 33
59 60 59 58 59 59 56 53 51 48 46 46 46 48 47 47 45 42 43 40 41 38 39 40 41 37 36 37 33 32 30 30 29 31 32 32 37 31 32 32 34 34 34
57 59 58 58 56 53 50 48 48 47 47 45 46 45 46 45 42 42 41 41 41 39 37 40 40 38 34 35 37 32 29 28 29 30 33 32 36 34 31 30 30 31 32
59 58 56 52 49 48 48 46 47 43 43 47 46 45 44 43 41 39 39 40 41 40 40 39 36 39 39 34 34 31 36 33 29 29 29 28 30 28 33 29 31 29 31
54 51 49 48 47 48 48 47 47 46 47 46 46 46 45 44 40 37 39 40 40 39 40 41 41 41 39 38 34 33 34 33 33 31 27 27 28 27 28 30 30 29 27
51 50 49 47 46 48 49 49 48 48 44 43 43 42 39 37 35 36 36 39 40 39 38 38 40 39 40 39 36 36 35 33 30 31 30 31 30 28 27 27 28 26 28

GFSSE_sfc_dewp_048.txt.gz
Dewpoint
62 67 71 72 72 72 72 72 72 72 72 72 72 71 71 71 70 70 69 69 68 66 65 64 63 61 60 60 61 61 61 63 64 64 67 67 66 66 66 68 66 63 69
64 66 71 71 72 72 72 72 72 71 71 71 71 71 70 70 70 69 68 67 66 63 62 60 60 60 61 61 62 62 62 64 65 65 66 67 67 65 66 67 67 66 68
63 66 68 71 71 72 72 72 71 71 70 70 70 70 70 69 69 67 67 66 64 61 60 60 61 61 61 62 62 62 63 64 65 65 65 64 63 65 65 68 67 67 67
64 63 66 71 71 72 71 71 71 70 70 70 70 69 68 68 67 65 66 65 64 60 59 61 61 61 61 62 62 62 63 64 64 64 61 61 60 66 65 65 66 64 65
63 64 69 70 70 71 71 71 71 71 70 70 69 68 67 66 64 64 65 64 63 60 59 61 61 61 62 62 63 63 63 63 63 59 53 55 57 63 65 65 64 64 65
65 67 69 69 70 70 70 71 70 70 70 69 68 67 66 64 64 64 65 64 62 61 61 61 61 62 63 63 63 63 63 62 62 46 51 57 56 61 61 64 66 66 65
67 67 69 68 69 70 70 70 70 70 69 68 68 67 66 64 63 64 64 64 63 62 61 61 62 62 62 63 62 62 62 62 55 46 51 55 59 61 60 61 65 66 65
65 68 67 69 69 69 70 69 69 69 68 68 67 66 65 65 64 64 64 64 63 63 62 62 62 62 61 61 61 60 61 61 54 49 52 57 62 61 61 61 63 63 63
67 67 67 67 69 68 68 68 68 67 67 67 67 66 65 65 65 64 64 64 63 63 62 62 62 61 60 59 58 59 60 61 54 49 50 55 62 60 60 61 61 63 64
67 65 67 67 67 67 67 67 66 66 66 66 65 64 63 63 63 64 64 63 63 62 62 61 61 61 60 59 58 55 58 59 48 48 52 56 59 57 58 59 60 60 63
65 65 63 62 65 65 66 66 65 66 65 64 63 63 61 58 60 61 62 63 62 61 61 60 60 59 60 60 59 54 57 49 48 47 51 58 56 54 55 56 58 59 60
60 57 60 61 62 63 60 63 62 61 61 60 60 61 61 63 61 58 61 63 62 61 61 61 59 59 59 53 53 56 51 51 50 48 51 57 55 54 54 55 57 58 59
54 56 57 61 61 59 57 60 57 59 62 63 63 63 63 62 61 61 63 62 61 60 59 57 57 55 54 54 52 53 51 50 50 48 52 56 53 53 53 53 54 55 55
52 54 57 60 62 61 58 58 58 59 62 62 64 63 65 65 63 62 63 61 60 57 56 56 56 55 54 52 52 52 51 51 49 48 51 55 53 52 51 51 52 52 53
50 54 56 59 60 60 62 63 63 64 64 64 65 65 65 65 63 63 60 60 58 56 53 53 52 51 50 49 50 51 49 47 47 47 48 54 53 50 49 49 49 49 49
50 53 56 58 61 63 62 62 61 61 63 65 64 64 64 63 62 62 61 56 52 52 52 51 49 49 49 48 45 45 45 46 43 43 44 48 52 49 47 46 45 45 45
52 54 56 59 62 61 59 58 58 58 60 61 62 62 60 60 60 59 57 53 52 51 51 50 49 45 43 41 40 40 40 37 36 37 40 39 47 51 47 42 41 42 43
53 55 58 59 61 59 58 57 57 57 58 60 59 58 57 57 56 54 52 52 51 50 50 47 45 42 41 40 39 38 41 37 34 39 37 38 40 39 48 44 41 42 43
56 57 59 61 60 61 60 60 59 59 58 58 56 54 53 53 53 52 52 51 50 47 47 44 43 43 40 39 35 34 39 38 38 33 36 38 40 39 38 44 47 46 40
59 60 61 61 61 60 61 61 59 57 54 52 51 51 51 51 51 52 51 48 45 45 44 43 43 43 42 40 34 34 38 39 36 38 37 39 39 39 38 37 38 37 45
60 60 61 60 60 60 60 57 55 54 51 51 50 51 52 50 50 48 48 45 45 44 43 42 42 41 41 40 38 35 36 35 37 35 36 36 35 34 35 38 35 35 35
59 60 60 60 59 59 60 56 55 52 50 50 51 51 51 50 47 47 45 45 45 43 43 43 42 42 40 41 37 35 32 32 35 33 35 33 33 35 33 31 33 34 34
60 60 60 59 59 59 57 54 53 52 51 49 50 50 49 48 46 44 44 45 44 43 42 43 42 41 38 39 39 37 33 31 33 34 33 32 33 34 34 34 32 32 32
59 59 59 59 58 55 53 51 50 47 46 48 48 48 48 47 44 43 42 42 43 44 43 42 39 42 40 38 38 36 37 36 32 31 32 32 32 31 31 33 32 33 32
59 60 59 57 52 51 52 51 51 51 49 50 49 50 49 49 47 42 41 42 42 43 43 42 41 40 40 38 37 37 36 36 35 33 30 30 31 32 31 31 32 31 31
59 58 54 50 48 51 51 52 52 51 49 48 47 48 47 47 43 42 41 43 43 42 41 40 40 39 39 39 39 38 38 36 34 33 31 30 30 31 30 30 29 29 29

GFSSE_sfc_dewp_051.txt.gz
Dewpoint
67 70 72 72 72 72 72 71 71 71 71 72 71 71 71 70 70 69 69 68 66 63 61 60 61 61 61 61 62 63 63 64 65 66 67 67 66 65 66 68 67 65 68
68 70 71 72 72 72 72 71 71 71 71 71 71 71 70 69 69 68 67 66 64 60 61 61 61 61 61 62 62 63 63 65 65 66 67 66 66 66 66 67 67 66 68
68 70 70 71 71 71 71 71 71 71 71 70 71 70 69 68 67 67 65 65 63 61 62 62 61 61 61 61 62 62 64 65 65 65 66 65 63 65 65 67 66 67 65
68 69 70 70 71 71 71 71 70 70 70 70 69 69 68 66 66 64 64 64 63 61 62 61 61 61 61 61 62 63 63 63 64 65 62 60 60 65 65 64 64 64 63
65 68 70 70 70 70 70 70 70 70 70 69 68 68 67 66 63 63 65 64 63 62 61 61 61 61 61 63 63 63 63 63 61 57 55 56 56 60 63 64 64 64 64
66 69 69 69 70 70 71 70 70 70 69 68 68 67 65 64 63 64 65 64 63 62 61 61 61 61 63 62 62 63 62 62 58 51 56 60 58 61 61 61 65 65 65
67 67 67 68 69 70 70 70 69 69 68 68 67 66 65 63 63 64 65 64 63 62 62 62 61 61 62 61 61 61 61 61 51 52 56 59 60 62 61 62 63 63 63
65 66 67 68 69 69 69 69 68 68 68 67 66 66 65 65 65 65 64 64 63 63 63 62 62 61 60 60 60 60 59 60 52 53 57 58 62 61 60 61 62 63 64
67 66 67 68 68 68 67 67 67 67 67 66 65 65 64 64 64 64 64 64 64 64 63 62 61 60 59 59 59 60 59 59 49 51 52 57 61 59 58 59 60 60 61
66 66 66 66 67 67 66 66 65 65 65 64 64 63 63 63 63 63 63 63 63 63 62 62 61 61 60 59 59 60 59 56 47 51 53 56 60 56 57 58 58 59 60
64 65 66 66 66 66 65 65 65 65 64 63 63 63 61 60 60 61 62 63 63 62 61 61 61 60 59 58 60 61 56 50 49 49 52 58 58 55 56 57 56 57 58
63 64 64 65 65 64 63 63 63 63 61 60 60 60 59 58 59 60 61 62 62 62 61 61 61 59 57 52 51 55 50 49 49 48 52 58 56 54 54 54 55 55 55
61 60 62 63 63 60 61 61 60 60 60 60 59 59 60 61 60 61 61 62 60 60 57 57 56 54 52 52 52 51 50 50 49 48 53 56 54 52 52 52 52 52 52
57 56 57 59 60 57 60 58 57 59 61 61 63 63 63 63 62 62 61 60 60 57 54 52 51 50 49 48 48 49 49 48 48 48 52 55 54 50 51 50 49 49 48
55 55 56 57 56 56 60 62 62 63 63 63 64 63 63 63 61 61 59 56 54 51 49 48 47 48 47 46 45 43 43 44 40 41 47 55 54 51 49 47 46 46 46
54 55 56 57 59 61 60 59 60 62 63 63 62 62 61 61 60 57 56 53 50 49 49 48 46 44 42 42 39 39 39 37 34 35 40 46 53 52 48 45 44 44 44
53 55 56 59 60 58 57 58 58 59 60 61 59 59 58 58 56 55 53 51 50 48 48 45 42 41 40 39 38 37 39 37 35 36 38 37 49 51 49 43 43 42 43
52 54 56 60 57 56 56 57 57 57 59 58 57 55 54 54 52 51 50 49 49 47 44 43 42 40 39 39 37 35 38 37 37 35 35 36 38 44 49 48 43 40 40
53 55 59 57 57 58 57 57 57 56 56 56 54 51 51 51 51 50 49 46 45 45 43 41 41 41 39 39 36 35 37 36 37 34 36 36 39 38 38 45 47 45 42
55 59 58 59 59 58 58 58 57 56 54 51 50 49 49 49 50 50 48 43 44 42 42 42 40 40 39 39 37 36 35 35 36 36 36 34 35 34 35 36 35 38 44
59 60 60 59 58 58 58 57 55 53 50 49 48 48 49 49 47 46 45 44 43 41 41 42 40 39 39 39 36 34 35 36 34 35 35 34 34 34 33 33 32 35 34
58 60 59 58 58 58 60 57 54 51 49 48 48 49 49 47 46 43 43 42 41 40 40 40 40 40 39 39 36 36 33 33 35 34 34 33 32 34 34 32 34 31 32
60 59 59 58 58 58 60 55 53 50 49 48 48 48 47 46 44 44 43 42 41 41 40 40 39 38 38 38 38 35 32 31 33 33 33 33 32 32 32 33 31 32 31
59 60 60 59 58 58 58 53 50 46 45 47 48 48 46 45 43 42 41 41 41 41 39 40 40 39 38 36 37 36 35 35 32 31 33 33 32 31 32 32 32 31 29
59 59 59 58 58 58 51 50 48 47 47 48 49 47 46 45 43 41 40 40 41 41 41 39 37 37 38 36 37 36 35 35 35 33 31 30 32 32 32 32 32 30 28
58 58 58 58 56 49 49 49 48 47 48 47 47 47 47 46 44 42 41 40 40 39 36 36 35 35 35 37 37 37 36 35 36 35 33 31 30 31 31 31 28 28 30

GFSSE_sfc_dewp_054.txt.gz
Dewpoint
68 70 71 72 72 72 71 71 71 71 71 71 71 70 70 69 68 68 67 65 63 61 61 62 61 61 61 62 63 63 63 65 68 68 67 66 66 65 66 67 67 65 67
69 70 71 72 72 71 71 71 71 71 71 70 70 70 69 68 67 66 65 64 64 62 62 62 61 61 61 61 62 63 63 64 66 67 67 66 65 65 65 66 67 65 66
69 70 70 71 71 71 71 71 71 71 70 69 69 69 68 67 66 65 65 65 64 62 61 61 60 60 60 61 63 64 65 65 65 67 66 63 62 65 64 65 65 63 63
68 70 70 70 71 71 71 70 70 70 70 69 68 67 67 65 65 62 63 64 64 61 61 60 60 60 60 62 63 65 65 66 66 62 58 59 59 63 63 63 63 63 63
68 69 70 70 70 70 70 70 70 70 69 69 67 67 66 64 63 63 64 65 64 61 60 60 60 60 61 63 62 63 62 62 61 58 57 56 57 60 62 62 62 62 62
69 69 69 69 69 70 70 70 70 69 68 67 67 66 65 63 63 63 65 64 63 61 60 60 60 60 62 62 62 62 62 60 57 55 58 61 59 61 62 63 63 63 63
67 68 68 68 69 69 70 70 69 68 68 67 66 65 65 64 63 64 65 64 64 61 61 60 60 61 61 61 61 61 61 59 54 57 58 59 60 61 61 61 61 62 62
65 65 65 67 67 68 69 69 68 68 67 66 66 65 65 65 64 64 64 64 64 63 63 61 61 61 61 61 61 61 60 58 53 54 56 58 61 60 59 60 60 61 61
66 66 66 65 66 67 67 67 67 67 66 65 65 65 65 64 64 64 64 64 64 63 63 62 61 60 60 61 61 60 58 56 51 52 54 56 61 58 58 59 58 59 59
63 64 65 66 66 66 65 66 66 65 65 64 64 63 63 63 63 63 63 64 63 62 61 61 60 59 59 59 60 60 58 55 49 50 53 56 60 57 57 57 58 57 57
63 63 65 65 65 66 64 64 65 65 63 63 63 63 61 60 60 61 61 62 62 61 60 60 59 58 58 59 60 58 56 49 49 50 52 58 57 55 56 55 56 56 55
61 63 65 64 65 64 62 63 62 61 60 60 59 59 58 58 59 60 61 61 61 60 60 60 60 58 55 51 52 53 50 49 49 48 51 57 55 53 54 54 53 53 52
62 61 63 64 64 63 61 61 61 60 59 58 58 58 58 59 60 60 60 60 58 59 56 54 51 50 48 48 47 46 47 48 48 47 53 56 52 51 52 52 50 49 48
60 60 63 63 62 60 60 59 59 58 60 60 59 60 61 61 60 60 60 58 55 52 49 49 49 47 45 43 42 41 42 40 39 41 50 54 54 49 49 49 48 47 47
60 58 61 62 58 59 59 59 60 62 62 63 62 63 62 61 60 56 54 53 51 49 48 46 43 41 41 39 38 38 39 36 34 36 41 53 53 50 47 46 46 45 46
56 56 58 59 58 61 60 61 62 62 62 61 61 61 61 58 55 54 53 50 48 48 45 43 41 40 39 38 37 37 39 36 35 36 37 38 51 52 48 45 43 42 45
54 55 56 60 60 58 59 60 60 60 60 59 58 57 57 56 55 53 52 50 48 46 43 41 40 40 39 38 36 35 38 36 38 35 36 37 46 52 50 44 42 41 40
54 55 59 59 58 57 57 57 58 59 58 57 56 55 55 54 51 49 49 48 46 43 42 41 40 39 39 38 36 35 36 35 36 36 35 36 40 45 45 47 43 40 38
54 55 58 57 56 57 56 56 56 56 55 54 52 51 51 51 50 48 46 45 44 43 42 41 41 39 38 38 36 36 35 34 36 35 34 35 35 36 35 38 42 44 39
54 58 56 57 57 56 56 56 55 54 53 51 50 49 49 50 50 48 44 43 42 41 42 41 38 39 38 38 37 35 35 36 35 35 33 33 34 33 33 33 35 35 41
57 58 57 57 56 56 56 56 55 52 51 49 48 49 49 49 49 46 44 42 41 42 41 40 39 39 38 39 36 36 36 35 34 34 34 33 33 33 33 34 34 32 33
58 57 57 56 56 55 57 56 54 52 49 48 48 49 49 47 45 43 42 41 40 40 40 39 39 39 38 38 36 35 32 33 34 34 34 33 32 33 32 32 31 31 32
58 58 57 57 56 56 58 56 52 49 48 48 48 48 46 45 45 43 42 42 40 40 39 39 38 37 37 37 37 34 31 30 33 33 33 33 32 32 32 32 31 31 29
58 59 58 58 57 57 59 56 50 47 46 47 47 48 46 45 44 43 42 41 41 41 40 40 39 38 36 34 36 36 35 35 32 31 33 33 33 32 32 32 31 30 29
59 59 59 58 58 58 58 55 50 47 47 47 48 47 46 44 43 41 41 41 40 41 38 35 34 34 36 35 35 35 35 35 34 32 31 31 32 32 32 32 31 29 28
59 59 59 58 58 58 57 52 50 47 47 47 48 46 46 46 43 42 40 40 39 36 34 34 34 33 33 34 35 36 36 34 34 34 33 33 33 32 32 31 28 28 29

GFSSE_sfc_dewp_057.txt.gz
Dewpoint
68 70 71 72 71 71 71 71 71 71 71 71 70 70 69 68 67 65 65 65 64 62 62 62 62 61 61 62 62 63 67 67 67 67 67 65 65 65 65 65 65 63 66
69 69 71 71 71 71 71 71 71 71 70 69 69 69 68 67 66 65 65 65 64 62 61 61 61 61 62 64 64 64 65 67 67 67 66 65 64 64 64 64 65 61 63
69 70 70 70 71 71 71 71 71 70 69 67 67 67 67 66 65 65 65 65 64 60 60 60 60 62 65 66 67 65 65 67 66 66 64 62 60 62 63 63 64 63 63
69 70 70 70 70 70 70 70 70 70 68 67 66 66 65 64 64 64 64 65 64 61 60 60 60 60 62 64 66 67 66 64 63 61 57 57 57 62 62 61 61 61 61
69 69 70 69 70 70 70 70 70 70 68 67 66 65 64 64 63 63 65 64 63 60 59 59 59 60 62 63 63 63 63 63 62 60 59 58 58 60 62 63 63 63 62
69 69 69 68 69 69 70 70 70 69 67 67 66 65 64 63 63 64 65 64 63 60 60 60 60 61 62 63 63 61 62 61 59 58 59 60 58 61 61 61 62 62 62
68 69 68 67 68 69 70 70 69 68 67 66 66 65 65 65 64 65 65 64 64 62 60 60 62 62 61 61 62 61 61 60 56 57 58 58 58 60 60 60 60 61 61
66 67 67 68 67 68 68 68 68 67 67 66 65 65 65 65 65 65 65 64 64 63 62 61 62 62 62 61 60 60 59 57 53 54 56 57 60 59 59 59 59 58 58
65 65 66 66 65 65 66 67 67 66 66 66 65 65 65 64 64 64 64 64 64 63 63 62 62 62 62 61 60 58 58 57 51 53 54 56 60 58 58 58 58 57 57
65 65 64 64 65 66 65 66 65 65 65 65 65 64 64 64 64 64 64 64 63 63 62 62 61 61 62 61 60 58 56 55 49 51 53 56 58 56 56 56 56 56 55
63 62 63 64 65 64 64 65 65 65 64 63 63 63 61 60 60 59 62 62 62 62 62 62 61 59 57 57 58 57 54 49 49 49 51 58 56 55 55 55 55 54 53
59 60 62 63 64 64 63 63 62 61 60 60 60 59 58 58 59 59 61 62 62 61 61 59 57 55 50 46 45 48 46 46 45 48 51 57 54 53 53 53 52 51 50
60 62 63 63 64 63 62 62 61 60 59 58 58 58 58 58 60 59 59 59 57 56 50 49 46 45 42 42 41 41 39 39 40 42 53 56 53 49 51 50 49 49 49
60 61 62 63 63 62 60 60 59 58 58 58 57 58 59 59 59 59 58 56 51 49 47 46 45 42 40 39 38 39 37 36 36 37 42 55 53 47 48 48 47 48 47
59 60 61 63 61 60 59 58 58 59 59 61 62 62 61 60 58 56 53 51 49 46 44 42 40 39 38 37 37 38 36 36 36 36 38 45 51 51 46 46 44 44 45
59 59 62 62 58 59 59 59 60 61 62 61 61 61 60 57 55 53 51 49 47 44 42 41 39 38 38 37 36 37 36 36 35 35 37 38 48 52 48 45 43 43 43
58 57 60 58 59 60 60 60 60 61 60 59 59 59 56 55 53 51 50 48 45 42 41 40 39 39 38 37 35 35 35 35 36 35 35 40 47 52 50 44 42 40 38
55 56 58 59 59 59 59 59 60 59 58 57 56 56 55 53 51 50 49 47 44 43 41 40 39 38 38 37 35 35 34 35 35 34 34 35 37 37 40 42 41 39 38
54 57 58 58 57 57 57 57 57 56 56 55 53 53 52 50 49 47 46 44 43 42 42 41 40 38 37 37 36 35 35 35 35 33 33 33 33 33 33 37 41 44 40
55 58 58 57 56 56 56 55 54 54 53 51 50 50 50 49 47 45 44 43 42 42 41 39 37 39 38 37 36 35 35 35 35 34 33 33 33 33 33 33 33 32 40
56 57 56 56 55 55 55 53 52 51 50 49 49 49 49 49 47 43 43 41 41 40 39 38 39 38 37 38 35 35 36 34 34 34 34 33 32 32 32 33 32 31 32
56 57 56 56 55 55 54 55 54 51 50 48 48 49 49 49 46 43 42 40 41 41 39 39 38 38 37 38 34 34 30 32 34 35 33 33 32 32 32 31 31 31 30
56 56 56 56 55 54 56 54 51 49 48 47 47 47 48 46 44 43 42 41 40 40 39 38 38 36 35 36 36 32 29 28 32 33 33 33 33 32 32 32 31 31 28
56 57 57 56 56 56 57 54 51 48 46 47 47 47 46 46 44 43 42 41 40 40 40 39 38 37 35 32 35 36 35 34 32 30 33 33 33 33 33 32 32 30 28
56 57 57 57 56 57 57 56 52 48 47 47 47 47 46 44 44 42 42 41 40 41 37 35 34 34 35 34 34 34 34 34 33 32 29 31 33 34 34 33 32 29 28
58 58 57 57 57 57 58 55 52 49 47 47 47 46 46 44 42 41 41 40 38 35 34 34 33 32 32 33 34 35 34 34 33 32 30 31 31 33 34 32 29 28 29